W2GRK-15 Weather Reports


Display with metric or nautical units.
time (UTC)temp
F
wind
direction
speed
MPH
gust
MPH
rain 1hr
in
rain 24hr
in
rain mn
in
humidity
%
barometer
mb
20260507191717 66 349 4.0 9.0 0.00 0.24 0.21 34 1008.8
20260507191629 66 338 3.0 5.0 0.00 0.24 0.21 35 1008.6
20260507191524 66 52 1.0 2.0 0.00 0.24 0.21 38 1008.7
20260507191440 66 18 1.0 4.0 0.00 0.24 0.21 37 1008.8
20260507191315 65 295 1.0 4.0 0.00 0.24 0.21 35 1008.7
20260507191227 65 331 2.0 3.0 0.00 0.24 0.21 34 1008.8
20260507191123 65 39 3.0 4.0 0.00 0.24 0.21 36 1008.9
20260507191019 65 21 3.0 4.0 0.00 0.24 0.21 35 1008.7
20260507190930 65 58 3.0 5.0 0.00 0.24 0.21 37 1008.7
20260507190826 65 336 3.0 6.0 0.00 0.24 0.21 37 1008.6
20260507190721 65 319 1.0 3.0 0.00 0.24 0.21 36 1008.7
20260507190617 64 63 2.0 6.0 0.00 0.24 0.21 37 1008.8
20260507190529 65 16 6.0 9.0 0.00 0.24 0.21 34 1008.8
20260507190444 65 31 3.0 4.0 0.00 0.24 0.21 36 1008.8
20260507190320 65 82 2.0 4.0 0.00 0.24 0.21 36 1008.8
20260507190215 64 106 0.0 2.0 0.00 0.24 0.21 37 1008.8
20260507190127 64 124 2.0 5.0 0.00 0.24 0.21 33 1009.0
20260507190023 64 124 4.0 5.0 0.00 0.24 0.21 33 1008.8
20260507185918 64 124 3.0 5.0 0.00 0.24 0.21 33 1009.1
20260507185830 64 149 2.0 6.0 0.00 0.24 0.21 34 1009.0
20260507185726 65 352 4.0 7.0 0.00 0.24 0.21 35 1008.9
20260507185642 65 34 4.0 9.0 0.00 0.24 0.21 34 1009.0
20260507185517 65 30 3.0 5.0 0.00 0.24 0.21 37 1008.9
20260507185429 65 190 1.0 4.0 0.00 0.24 0.21 36 1009.0
20260507185325 65 199 4.0 6.0 0.00 0.24 0.21 34 1008.9
20260507185240 66 193 4.0 7.0 0.00 0.24 0.21 35 1009.0
20260507185116 66 189 3.0 7.0 0.00 0.24 0.21 36 1009.2
20260507185027 65 312 2.0 3.0 0.00 0.24 0.21 36 1009.3
20260507184923 65 227 2.0 4.0 0.00 0.24 0.21 35 1009.0
20260507184819 65 357 2.0 4.0 0.00 0.24 0.21 35 1009.1
20260507184730 65 192 2.0 4.0 0.00 0.24 0.21 36 1009.0
20260507184626 65 84 1.0 4.0 0.00 0.24 0.21 34 1009.2
20260507184541 65 342 5.0 9.0 0.00 0.24 0.21 35 1009.2
20260507184417 65 357 3.0 5.0 0.00 0.24 0.21 36 1009.2
20260507184329 65 251 2.0 3.0 0.00 0.24 0.21 35 1009.1
20260507184224 64 18 2.0 6.0 0.00 0.24 0.21 35 1009.0
20260507184120 64 11 2.0 5.0 0.00 0.24 0.21 35 1009.2
20260507184016 64 17 3.0 7.0 0.00 0.24 0.21 35 1009.1
20260507183927 65 49 5.0 8.0 0.00 0.24 0.21 34 1009.3
20260507183823 65 28 4.0 6.0 0.00 0.24 0.21 36 1009.4
20260507183718 65 18 3.0 6.0 0.00 0.24 0.21 35 1009.2
20260507183630 65 347 3.0 9.0 0.00 0.24 0.21 35 1009.1
20260507183606 65 1 3.0 6.0 0.00 0.24 0.21 35 1009.3
20260507183421 65 318 4.0 6.0 0.00 0.24 0.21 37 1009.2
20260507183317 65 7 4.0 7.0 0.00 0.24 0.21 34 1009.2
20260507183228 65 358 2.0 7.0 0.00 0.24 0.21 37 1009.2
20260507183144 65 353 3.0 5.0 0.00 0.24 0.21 34 1009.2
20260507183020 64 11 3.0 4.0 0.00 0.24 0.21 37 1009.1
20260507182956 65 28 3.0 5.0 0.00 0.24 0.21 34 1009.1
20260507182827 65 62 3.0 4.0 0.00 0.24 0.21 37 1009.2
20260507182723 65 295 2.0 6.0 0.00 0.24 0.21 35 1009.3
20260507182638 66 320 2.0 3.0 0.00 0.24 0.21 34 1009.3
20260507182530 66 207 2.0 4.0 0.00 0.24 0.21 37 1009.3
20260507182425 66 201 3.0 5.0 0.00 0.24 0.21 38 1009.3
20260507182321 66 223 2.0 4.0 0.00 0.24 0.21 35 1009.3
20260507182217 66 75 1.0 2.0 0.00 0.24 0.21 37 1009.3
20260507182128 65 343 0.0 2.0 0.00 0.24 0.21 36 1009.3
20260507182024 65 186 2.0 3.0 0.00 0.24 0.21 38 1009.4
20260507181919 65 196 3.0 4.0 0.00 0.24 0.21 35 1009.3
20260507181815 65 203 1.0 2.0 0.00 0.24 0.21 35 1009.3
20260507181727 65 249 1.0 3.0 0.00 0.24 0.21 35 1009.3
20260507181622 65 235 2.0 3.0 0.00 0.24 0.21 36 1009.3
20260507181518 65 207 2.0 4.0 0.00 0.24 0.21 38 1009.3
20260507181430 65 305 4.0 8.0 0.00 0.24 0.21 36 1009.5
20260507181345 65 340 4.0 5.0 0.00 0.24 0.21 35 1009.5
20260507181221 65 309 5.0 9.0 0.00 0.24 0.21 37 1009.4
20260507181117 65 278 2.0 4.0 0.00 0.24 0.21 36 1009.4
20260507181028 64 203 2.0 3.0 0.00 0.24 0.21 38 1009.3
20260507180924 64 202 1.0 3.0 0.00 0.24 0.21 37 1009.5
20260507180820 64 283 3.0 4.0 0.00 0.24 0.21 36 1009.4
20260507180715 64 311 2.0 4.0 0.00 0.24 0.21 34 1009.5
20260507180627 65 325 3.0 5.0 0.00 0.24 0.21 34 1009.5
20260507180602 65 203 3.0 6.0 0.00 0.24 0.21 38 1009.5
20260507180418 65 339 1.0 3.0 0.00 0.24 0.21 36 1009.7
20260507180350 65 200 1.0 2.0 0.00 0.24 0.21 38 1009.6
20260507180225 64 198 1.0 3.0 0.00 0.24 0.21 36 1009.6
20260507180121 64 174 3.0 4.0 0.00 0.24 0.21 38 1009.7
20260507180016 64 336 3.0 6.0 0.00 0.24 0.21 37 1009.6
20260507175928 64 237 4.0 7.0 0.00 0.24 0.21 37 1009.8
20260507175823 64 3 2.0 4.0 0.00 0.24 0.21 33 1009.8
20260507175719 64 59 2.0 4.0 0.00 0.24 0.21 35 1009.7
20260507175651 64 330 2.0 4.0 0.00 0.24 0.21 35 1009.7
20260507175527 63 35 2.0 3.0 0.00 0.24 0.21 37 1009.7
20260507175442 63 75 3.0 4.0 0.00 0.24 0.21 36 1009.8
20260507175318 63 43 3.0 4.0 0.00 0.24 0.21 34 1009.7
20260507175229 63 167 3.0 5.0 0.00 0.24 0.21 35 1009.7
20260507175125 64 58 4.0 9.0 0.00 0.24 0.21 35 1009.9
20260507175020 64 35 2.0 4.0 0.00 0.24 0.21 35 1009.7
20260507174936 64 5 3.0 4.0 0.00 0.24 0.21 37 1009.8
20260507174828 64 181 1.0 2.0 0.00 0.24 0.21 36 1009.9
20260507174723 63 358 2.0 5.0 0.00 0.24 0.21 37 1010.0
20260507174619 63 323 2.0 5.0 0.00 0.24 0.21 36 1010.0
20260507174531 64 37 3.0 6.0 0.00 0.24 0.21 35 1010.0
20260507174426 64 358 3.0 5.0 0.00 0.24 0.21 35 1010.1
20260507174322 64 352 4.0 6.0 0.00 0.24 0.21 34 1010.0
20260507174217 64 268 3.0 5.0 0.00 0.24 0.21 36 1010.0
20260507174129 65 304 5.0 8.0 0.00 0.24 0.21 34 1010.0
20260507174025 65 327 3.0 5.0 0.00 0.24 0.21 36 1010.0
20260507173920 64 4 2.0 3.0 0.00 0.24 0.21 38 1009.9
20260507173816 64 179 2.0 3.0 0.00 0.24 0.21 36 1010.1
20260507173728 64 32 2.0 4.0 0.00 0.24 0.21 36 1010.0
20260507173623 63 28 2.0 3.0 0.00 0.24 0.21 37 1010.0
20260507173539 63 346 3.0 6.0 0.00 0.24 0.21 35 1010.0
20260507173430 63 329 4.0 8.0 0.00 0.24 0.21 36 1010.2
20260507173326 62 5 3.0 4.0 0.00 0.25 0.21 37 1010.0
20260507173221 62 69 3.0 4.0 0.00 0.25 0.21 34 1009.9
20260507173137 63 64 2.0 6.0 0.00 0.25 0.21 33 1010.1
20260507173028 63 354 3.0 4.0 0.00 0.25 0.21 36 1010.0
20260507172924 63 12 2.0 5.0 0.00 0.25 0.21 35 1010.0
20260507172820 63 341 3.0 4.0 0.00 0.25 0.21 36 1010.2
20260507172715 63 354 3.0 7.0 0.00 0.25 0.21 35 1010.1
20260507172627 63 353 4.0 6.0 0.00 0.25 0.21 35 1010.2
20260507172523 63 4 6.0 7.0 0.00 0.25 0.21 36 1010.2
20260507172418 63 8 3.0 5.0 0.00 0.25 0.21 36 1010.2
20260507172330 64 342 3.0 7.0 0.00 0.25 0.21 35 1010.1
20260507172226 64 145 2.0 5.0 0.00 0.25 0.21 37 1009.9
20260507172121 63 320 3.0 5.0 0.00 0.25 0.21 38 1010.0
20260507172017 63 296 1.0 5.0 0.00 0.26 0.21 37 1010.0
20260507171929 63 308 2.0 4.0 0.00 0.26 0.21 37 1010.1
20260507171824 63 340 2.0 4.0 0.00 0.26 0.21 37 1010.2
20260507171720 63 76 2.0 3.0 0.00 0.26 0.21 35 1010.3
20260507171616 63 41 1.0 4.0 0.00 0.26 0.21 38 1010.2
20260507171527 62 282 2.0 4.0 0.00 0.26 0.21 38 1010.2
20260507171423 62 24 2.0 4.0 0.00 0.26 0.21 37 1010.4
20260507171339 62 311 2.0 4.0 0.00 0.27 0.21 37 1010.3
20260507171310 62 14 4.0 7.0 0.00 0.27 0.21 37 1010.3
20260507171126 62 35 6.0 7.0 0.00 0.27 0.21 35 1010.4
20260507171041 62 41 4.0 5.0 0.00 0.27 0.21 34 1010.4
20260507170917 63 22 3.0 4.0 0.00 0.27 0.21 35 1010.4
20260507170829 63 55 3.0 4.0 0.00 0.27 0.21 37 1010.3
20260507170724 63 13 2.0 5.0 0.00 0.28 0.21 37 1010.3
20260507170620 62 54 3.0 5.0 0.00 0.28 0.21 37 1010.3
20260507170535 63 203 2.0 4.0 0.00 0.28 0.21 38 1010.4
20260507170427 62 238 2.0 3.0 0.00 0.28 0.21 38 1010.4
20260507170323 62 191 2.0 4.0 0.00 0.28 0.21 39 1010.4
20260507170258 62 299 2.0 5.0 0.00 0.28 0.21 37 1010.6
20260507170150 62 323 3.0 5.0 0.00 0.28 0.21 38 1010.5
20260507170026 62 29 5.0 10.0 0.00 0.28 0.21 37 1010.5
20260507165921 62 26 3.0 4.0 0.00 0.28 0.21 37 1010.7
20260507165817 62 316 2.0 4.0 0.00 0.28 0.21 37 1010.6
20260507165728 62 28 3.0 7.0 0.00 0.28 0.21 36 1010.6
20260507165644 63 330 5.0 7.0 0.00 0.28 0.21 36 1010.4
20260507165520 63 324 5.0 8.0 0.00 0.29 0.21 37 1010.4
20260507165415 62 3 2.0 4.0 0.00 0.29 0.21 38 1010.5
20260507165327 62 35 2.0 4.0 0.00 0.29 0.21 36 1010.4
20260507165223 63 73 2.0 4.0 0.00 0.29 0.21 36 1010.4
20260507165138 62 71 2.0 3.0 0.00 0.29 0.21 40 1010.5
20260507165050 62 15 2.0 4.0 0.00 0.29 0.21 40 1010.6
20260507164926 62 48 2.0 6.0 0.00 0.29 0.21 38 1010.5
20260507164821 62 56 5.0 9.0 0.00 0.29 0.21 36 1010.7
20260507164717 62 333 2.0 3.0 0.00 0.29 0.21 39 1010.6
20260507164649 63 50 3.0 4.0 0.00 0.29 0.21 37 1010.7
20260507164524 63 2 3.0 5.0 0.00 0.29 0.21 38 1010.7
20260507164420 63 44 2.0 3.0 0.00 0.29 0.21 39 1010.7
20260507164335 63 340 2.0 6.0 0.00 0.29 0.21 37 1010.7
20260507164227 62 302 1.0 2.0 0.00 0.30 0.21 41 1010.6
20260507164123 62 35 3.0 5.0 0.00 0.30 0.21 39 1010.7
20260507164018 62 248 2.0 3.0 0.00 0.30 0.21 38 1010.8
20260507163930 62 177 2.0 4.0 0.00 0.30 0.21 37 1010.9
20260507163826 61 351 3.0 6.0 0.00 0.30 0.21 38 1010.6
20260507163721 61 357 2.0 4.0 0.00 0.30 0.21 37 1010.8
20260507163617 62 355 3.0 6.0 0.00 0.30 0.21 37 1010.8
20260507163529 61 347 2.0 4.0 0.00 0.30 0.21 38 1010.7
20260507163424 61 10 3.0 5.0 0.00 0.31 0.21 38 1010.8
20260507163320 61 35 3.0 9.0 0.00 0.31 0.21 40 1010.8
20260507163256 62 54 6.0 10.0 0.00 0.31 0.21 36 1010.9
20260507163127 62 347 4.0 6.0 0.00 0.31 0.21 37 1010.9
20260507163023 62 39 3.0 4.0 0.00 0.31 0.21 38 1010.8
20260507162918 62 295 3.0 7.0 0.00 0.31 0.21 38 1010.9
20260507162830 62 5 3.0 5.0 0.00 0.31 0.21 37 1010.8
20260507162726 62 35 4.0 6.0 0.00 0.31 0.21 37 1010.8
20260507162621 62 49 6.0 8.0 0.00 0.32 0.21 36 1010.7
20260507162517 62 348 3.0 7.0 0.00 0.32 0.21 40 1010.8
20260507162429 62 341 3.0 6.0 0.00 0.32 0.21 40 1010.8
20260507162344 62 39 4.0 7.0 0.00 0.32 0.21 39 1010.9
20260507162240 62 125 3.0 4.0 0.00 0.32 0.21 39 1010.8
20260507162116 62 5 2.0 4.0 0.00 0.33 0.21 40 1011.0
20260507162047 62 351 3.0 5.0 0.00 0.33 0.21 43 1010.7
20260507161923 62 352 3.0 4.0 0.00 0.33 0.21 41 1010.7
20260507161818 62 331 3.0 6.0 0.00 0.33 0.21 41 1010.7
20260507161730 62 346 3.0 6.0 0.00 0.33 0.21 40 1010.8
20260507161626 62 101 1.0 3.0 0.00 0.33 0.21 40 1010.8
20260507161521 62 358 3.0 4.0 0.00 0.33 0.21 38 1010.8
20260507161417 63 342 3.0 5.0 0.00 0.34 0.21 39 1011.0
20260507161329 63 231 1.0 3.0 0.00 0.34 0.21 40 1010.8
20260507161224 63 294 2.0 3.0 0.00 0.34 0.21 41 1010.8
20260507161120 62 344 2.0 4.0 0.00 0.35 0.21 42 1010.8
20260507161036 62 171 2.0 2.0 0.00 0.35 0.21 43 1010.9
20260507160927 62 316 2.0 5.0 0.00 0.35 0.21 41 1011.1
20260507160823 62 284 3.0 7.0 0.00 0.35 0.21 44 1011.3
20260507160719 62 49 4.0 5.0 0.00 0.35 0.21 39 1011.2
20260507160630 62 27 3.0 4.0 0.00 0.35 0.21 42 1011.1
20260507160526 62 218 1.0 2.0 0.00 0.35 0.21 44 1011.1
20260507160421 62 169 1.0 2.0 0.00 0.36 0.21 42 1011.0
20260507160317 61 325 2.0 4.0 0.00 0.36 0.21 42 1011.1
20260507160229 61 298 1.0 3.0 0.00 0.36 0.21 45 1011.0
20260507160144 62 308 3.0 7.0 0.00 0.36 0.21 41 1011.1
20260507160040 61 33 2.0 3.0 0.00 0.36 0.21 44 1011.3
20260507155915 61 8 2.0 4.0 0.00 0.36 0.21 42 1011.2
20260507155827 61 227 2.0 4.0 0.00 0.37 0.21 43 1011.2
20260507155723 61 350 2.0 5.0 0.00 0.37 0.21 43 1011.2
20260507155618 62 24 4.0 5.0 0.00 0.37 0.21 42 1011.3
20260507155530 62 317 3.0 8.0 0.00 0.37 0.21 43 1011.2
20260507155426 61 327 3.0 6.0 0.00 0.37 0.21 46 1011.0
20260507155321 61 46 3.0 6.0 0.00 0.37 0.21 45 1011.1
20260507155217 61 64 4.0 6.0 0.00 0.37 0.21 44 1011.2
20260507155129 60 90 4.0 4.0 0.00 0.37 0.21 46 1011.2
20260507155024 60 67 4.0 6.0 0.00 0.37 0.21 43 1011.1
20260507154920 60 56 3.0 5.0 0.00 0.37 0.21 44 1011.3
20260507154816 60 93 4.0 6.0 0.00 0.37 0.21 42 1011.4
20260507154728 61 94 3.0 4.0 0.00 0.37 0.21 44 1011.3
20260507154623 61 188 4.0 7.0 0.00 0.37 0.21 46 1011.4
20260507154519 60 214 2.0 2.0 0.00 0.37 0.21 46 1011.3
20260507154430 60 146 2.0 3.0 0.00 0.37 0.21 43 1011.4
20260507154326 60 65 2.0 4.0 0.00 0.37 0.21 43 1011.3
20260507154221 60 347 4.0 6.0 0.00 0.37 0.21 44 1011.4
20260507154137 60 60 3.0 5.0 0.00 0.37 0.21 46 1011.5
20260507154029 60 21 3.0 6.0 0.00 0.37 0.21 42 1011.5
20260507153924 60 42 3.0 5.0 0.00 0.37 0.21 45 1011.5
20260507153820 61 16 3.0 5.0 0.00 0.37 0.21 44 1011.4
20260507153716 61 46 3.0 6.0 0.00 0.37 0.21 44 1011.5
20260507153627 61 43 2.0 3.0 0.00 0.37 0.21 45 1011.7
20260507153523 61 299 2.0 7.0 0.00 0.37 0.21 45 1011.6
20260507153418 61 61 4.0 6.0 0.00 0.37 0.21 44 1011.6
20260507153330 61 57 2.0 3.0 0.00 0.37 0.21 46 1011.3
20260507153226 61 354 3.0 5.0 0.00 0.37 0.21 44 1011.7
20260507153202 61 332 2.0 3.0 0.00 0.37 0.21 45 1011.4
20260507153017 61 306 3.0 4.0 0.00 0.37 0.21 47 1011.6
20260507152929 61 53 2.0 5.0 0.00 0.37 0.21 43 1011.5
20260507152905 61 8 3.0 5.0 0.00 0.37 0.21 44 1011.6
20260507152720 61 331 4.0 5.0 0.00 0.37 0.21 48 1011.6
20260507152615 60 56 1.0 1.0 0.00 0.37 0.21 48 1011.5
20260507152527 60 158 2.0 4.0 0.00 0.37 0.21 47 1011.4
20260507152443 60 182 2.0 4.0 0.00 0.37 0.21 46 1011.5
20260507152339 60 220 2.0 3.0 0.00 0.37 0.21 47 1011.5
20260507152230 60 279 2.0 4.0 0.00 0.37 0.21 48 1011.5
20260507152146 60 209 1.0 4.0 0.00 0.37 0.21 48 1011.5
20260507152021 60 48 4.0 6.0 0.00 0.37 0.21 46 1011.7
20260507151917 60 353 2.0 3.0 0.00 0.37 0.21 47 1011.7
20260507151849 60 115 3.0 6.0 0.00 0.37 0.21 47 1011.6
20260507151724 60 52 2.0 4.0 0.00 0.37 0.21 46 1011.6
20260507151640 60 36 3.0 5.0 0.00 0.37 0.21 48 1011.9
20260507151515 60 24 1.0 3.0 0.00 0.37 0.21 48 1011.7
20260507151427 60 16 2.0 4.0 0.00 0.37 0.21 47 1011.6
20260507151323 59 29 2.0 4.0 0.00 0.37 0.21 46 1011.7
20260507151218 59 27 2.0 6.0 0.00 0.37 0.21 47 1011.9
20260507151130 59 359 4.0 6.0 0.00 0.37 0.21 48 1011.7
20260507151026 59 48 4.0 8.0 0.00 0.37 0.21 49 1011.6
20260507150921 59 22 3.0 5.0 0.00 0.37 0.21 47 1011.8
20260507150817 59 67 3.0 4.0 0.00 0.37 0.21 47 1011.8
20260507150729 59 64 3.0 5.0 0.00 0.37 0.21 49 1011.7
20260507150624 59 36 3.0 5.0 0.00 0.37 0.21 50 1011.7
20260507150520 59 28 3.0 5.0 0.00 0.37 0.21 47 1011.7
20260507150415 59 15 4.0 8.0 0.00 0.37 0.21 47 1011.9
20260507150327 59 0 4.0 9.0 0.00 0.37 0.21 46 1011.8
20260507150223 60 359 3.0 7.0 0.00 0.37 0.21 47 1012.0
20260507150118 60 360 5.0 7.0 0.00 0.37 0.21 48 1011.9
20260507150030 60 40 3.0 4.0 0.00 0.37 0.21 49 1011.9
20260507145926 60 330 1.0 3.0 0.00 0.37 0.21 47 1011.8
20260507145821 60 330 1.0 4.0 0.00 0.37 0.21 47 1011.9
20260507145717 59 360 2.0 4.0 0.00 0.37 0.21 50 1011.9
20260507145629 59 26 3.0 3.0 0.00 0.37 0.21 48 1011.7
20260507145524 59 33 2.0 4.0 0.00 0.37 0.21 49 1012.0
20260507145420 59 0 4.0 10.0 0.00 0.37 0.21 47 1011.9
20260507145335 59 69 5.0 10.0 0.00 0.37 0.21 48 1011.8
20260507145227 59 32 2.0 4.0 0.00 0.37 0.21 51 1011.8
20260507145123 59 65 2.0 3.0 0.00 0.37 0.21 55 1011.9
20260507145019 58 53 2.0 3.0 0.00 0.37 0.21 51 1011.9
20260507144930 59 47 3.0 7.0 0.00 0.37 0.21 51 1012.1
20260507144826 59 37 4.0 8.0 0.00 0.37 0.21 52 1012.0
20260507144722 59 47 3.0 5.0 0.00 0.37 0.21 50 1011.9
20260507144617 59 28 2.0 4.0 0.00 0.37 0.21 50 1012.1
20260507144529 59 266 2.0 4.0 0.00 0.37 0.21 52 1012.0
20260507144445 59 260 3.0 6.0 0.00 0.37 0.21 51 1012.1
20260507144320 59 45 4.0 6.0 0.00 0.37 0.21 50 1012.0
20260507144216 60 343 3.0 5.0 0.00 0.37 0.21 54 1012.1
20260507144127 59 350 3.0 5.0 0.00 0.37 0.21 52 1011.7
20260507144023 59 52 2.0 4.0 0.00 0.37 0.21 54 1012.0
20260507143919 59 8 2.0 3.0 0.00 0.37 0.21 52 1012.0
20260507143830 59 47 2.0 4.0 0.00 0.37 0.21 54 1011.9
20260507143726 59 43 2.0 4.0 0.00 0.37 0.21 53 1011.9
20260507143621 58 351 2.0 4.0 0.00 0.37 0.21 54 1011.9
20260507143517 58 349 2.0 4.0 0.00 0.37 0.21 53 1011.9
20260507143429 58 140 3.0 6.0 0.00 0.37 0.21 54 1012.1
20260507143324 58 21 3.0 5.0 0.00 0.37 0.21 53 1012.1
20260507143220 58 42 4.0 6.0 0.00 0.37 0.21 52 1011.8
20260507143115 58 40 2.0 4.0 0.00 0.37 0.21 54 1012.0
20260507143027 58 58 3.0 7.0 0.00 0.37 0.21 52 1012.1
20260507142923 58 46 4.0 7.0 0.00 0.37 0.21 55 1012.1
20260507142819 58 48 2.0 3.0 0.00 0.37 0.21 55 1011.7
20260507142730 58 358 4.0 9.0 0.00 0.37 0.21 54 1011.9
20260507142626 58 293 3.0 5.0 0.00 0.37 0.21 55 1012.0
20260507142541 58 54 3.0 6.0 0.00 0.37 0.21 54 1012.1
20260507142417 58 30 2.0 3.0 0.00 0.37 0.21 57 1011.8
20260507142349 57 204 2.0 5.0 0.00 0.37 0.21 57 1011.9
20260507142224 57 345 3.0 4.0 0.00 0.37 0.21 58 1012.1
20260507142120 57 328 3.0 4.0 0.00 0.37 0.21 57 1011.8
20260507142016 57 352 4.0 8.0 0.00 0.37 0.21 55 1012.0
20260507141927 58 16 3.0 5.0 0.00 0.37 0.21 56 1012.0
20260507141823 58 311 3.0 5.0 0.00 0.37 0.21 58 1012.1
20260507141718 58 24 3.0 6.0 0.00 0.37 0.21 58 1012.1
20260507141630 58 324 2.0 6.0 0.00 0.37 0.21 58 1011.9
20260507141525 57 212 2.0 4.0 0.00 0.37 0.21 60 1012.1
20260507141421 57 58 2.0 3.0 0.00 0.37 0.21 60 1011.8
20260507141316 57 41 1.0 2.0 0.00 0.37 0.21 61 1012.0
20260507141228 57 332 2.0 6.0 0.00 0.37 0.21 61 1012.0
20260507141124 57 352 3.0 6.0 0.00 0.37 0.21 60 1012.1
20260507141019 57 50 2.0 4.0 0.00 0.37 0.21 59 1012.1
20260507140915 57 12 4.0 9.0 0.00 0.37 0.21 59 1012.0
20260507140827 57 46 4.0 9.0 0.00 0.37 0.21 62 1012.1
20260507140742 56 336 2.0 6.0 0.00 0.37 0.21 61 1011.9
20260507140618 56 303 3.0 4.0 0.00 0.37 0.21 61 1012.1
20260507140530 56 260 2.0 4.0 0.00 0.37 0.21 61 1012.0
20260507140425 56 341 3.0 6.0 0.00 0.37 0.21 62 1012.1
20260507140341 56 335 2.0 5.0 0.00 0.37 0.21 63 1012.1
20260507140217 56 358 3.0 4.0 0.00 0.37 0.21 62 1012.0
20260507140148 56 340 2.0 4.0 0.00 0.37 0.21 63 1011.9
20260507140024 56 323 2.0 6.0 0.00 0.37 0.21 64 1012.1
20260507135920 56 342 2.0 5.0 0.00 0.37 0.21 64 1012.1
20260507135815 56 308 2.0 5.0 0.00 0.37 0.21 64 1012.0
20260507135727 56 117 2.0 9.0 0.00 0.37 0.21 64 1012.1
20260507135623 56 2 5.0 12.0 0.00 0.37 0.21 63 1012.1
20260507135518 56 9 4.0 4.0 0.00 0.37 0.21 65 1012.1
20260507135450 56 50 3.0 8.0 0.00 0.37 0.21 65 1012.2
20260507135325 56 53 3.0 7.0 0.00 0.37 0.21 64 1012.1
20260507135221 56 25 2.0 3.0 0.00 0.37 0.21 66 1012.1
20260507135116 56 7 3.0 4.0 0.00 0.37 0.21 67 1012.1
20260507135028 56 46 3.0 4.0 0.00 0.37 0.21 69 1012.0
20260507134924 56 14 1.0 4.0 0.00 0.37 0.21 68 1012.1
20260507134839 56 3 3.0 4.0 0.00 0.37 0.21 67 1012.2
20260507134715 56 41 3.0 6.0 0.00 0.37 0.21 65 1012.1
20260507134627 56 42 3.0 5.0 0.00 0.37 0.21 67 1011.9
20260507134542 56 80 2.0 4.0 0.00 0.37 0.21 68 1012.0
20260507134418 56 326 3.0 5.0 0.00 0.37 0.21 68 1012.0
20260507134330 56 340 2.0 4.0 0.00 0.37 0.21 69 1012.1
20260507134225 56 33 4.0 6.0 0.00 0.37 0.21 68 1012.1
20260507134121 56 67 2.0 4.0 0.00 0.37 0.21 70 1012.0
20260507134017 55 107 2.0 3.0 0.00 0.37 0.21 72 1012.0
20260507133928 55 352 2.0 3.0 0.00 0.37 0.21 71 1012.1
20260507133824 55 343 1.0 4.0 0.00 0.37 0.21 70 1012.1
20260507133739 55 15 3.0 4.0 0.00 0.37 0.21 70 1012.0
20260507133615 55 331 2.0 4.0 0.00 0.37 0.21 71 1012.0
20260507133527 55 355 2.0 5.0 0.00 0.37 0.21 72 1012.0
20260507133422 54 323 3.0 5.0 0.00 0.37 0.21 73 1012.1
20260507133338 54 240 2.0 2.0 0.00 0.37 0.21 73 1012.2
20260507133230 54 33 2.0 4.0 0.00 0.37 0.21 71 1012.2
20260507133125 54 348 2.0 4.0 0.00 0.37 0.21 72 1012.1
20260507133021 54 231 2.0 4.0 0.00 0.37 0.21 72 1011.9
20260507132916 54 355 4.0 8.0 0.00 0.37 0.21 73 1012.1
20260507132828 55 23 3.0 8.0 0.00 0.37 0.21 75 1012.1
20260507132724 54 34 2.0 4.0 0.00 0.37 0.21 76 1011.9
20260507132619 54 38 3.0 5.0 0.00 0.37 0.21 75 1012.2
20260507132515 54 209 2.0 3.0 0.00 0.37 0.21 76 1012.1
20260507132427 54 154 1.0 2.0 0.00 0.37 0.21 76 1012.0
20260507132322 53 52 2.0 6.0 0.00 0.37 0.21 73 1012.2
20260507132218 54 46 2.0 7.0 0.00 0.37 0.21 73 1012.3
20260507132129 54 51 5.0 7.0 0.00 0.37 0.21 73 1012.1
20260507132025 54 39 4.0 5.0 0.00 0.37 0.21 74 1012.0
20260507131921 54 13 2.0 3.0 0.00 0.37 0.21 76 1012.2
20260507131816 54 44 3.0 3.0 0.00 0.37 0.21 75 1012.1
20260507131728 54 47 1.0 3.0 0.00 0.37 0.21 75 1012.2
20260507131624 54 42 2.0 3.0 0.00 0.37 0.21 76 1012.2
20260507131519 54 34 2.0 2.0 0.00 0.37 0.21 77 1012.2
20260507131431 54 31 3.0 4.0 0.00 0.37 0.21 77 1012.2
20260507131326 54 45 2.0 3.0 0.00 0.37 0.21 78 1012.3
20260507131221 53 49 1.0 2.0 0.00 0.37 0.21 78 1012.2
20260507131117 53 333 1.0 4.0 0.00 0.37 0.21 78 1012.2
20260507131028 53 85 2.0 2.0 0.00 0.37 0.21 80 1012.1
20260507130923 53 5 1.0 2.0 0.00 0.37 0.21 78 1012.2
20260507130839 52 18 1.0 2.0 0.00 0.37 0.21 79 1012.2
20260507130730 52 52 1.0 2.0 0.00 0.37 0.21 79 1012.1
20260507130626 52 51 1.0 3.0 0.00 0.37 0.21 79 1012.1
20260507130521 52 349 2.0 3.0 0.00 0.37 0.21 80 1012.3
20260507130416 52 338 2.0 3.0 0.00 0.37 0.21 79 1012.1
20260507130328 52 332 3.0 4.0 0.00 0.37 0.21 79 1012.3
20260507130303 52 282 1.0 4.0 0.00 0.37 0.21 81 1012.3
20260507130118 52 23 2.0 2.0 0.00 0.37 0.21 81 1012.1
20260507130030 52 70 2.0 2.0 0.00 0.37 0.21 81 1012.2
20260507125926 52 46 2.0 3.0 0.00 0.37 0.21 81 1012.0
20260507125841 52 8 2.0 3.0 0.00 0.37 0.21 81 1012.2
20260507125717 52 55 1.0 2.0 0.00 0.37 0.21 81 1012.1
20260507125629 52 324 3.0 5.0 0.00 0.37 0.21 81 1012.3
20260507125524 52 19 2.0 4.0 0.00 0.37 0.21 82 1012.2
20260507125440 52 35 1.0 2.0 0.00 0.37 0.21 83 1012.1
20260507125316 51 54 1.0 4.0 0.00 0.37 0.21 83 1012.1
20260507125227 51 34 1.0 3.0 0.00 0.37 0.21 83 1012.3
20260507125123 51 67 0.0 2.0 0.00 0.37 0.21 83 1012.2
20260507125018 51 13 1.0 3.0 0.00 0.37 0.21 83 1012.3
20260507124930 51 81 1.0 4.0 0.00 0.37 0.21 83 1012.3
20260507124846 51 52 1.0 2.0 0.00 0.37 0.21 84 1012.1
20260507124721 51 9 2.0 2.0 0.00 0.37 0.21 84 1012.1
20260507124617 51 220 1.0 2.0 0.00 0.37 0.21 85 1012.0
20260507124529 51 347 2.0 3.0 0.00 0.37 0.21 85 1012.0
20260507124424 51 54 1.0 2.0 0.00 0.37 0.21 85 1012.0
20260507124340 51 208 0.0 2.0 0.00 0.37 0.21 85 1012.2
20260507124236 51 9 2.0 2.0 0.00 0.37 0.21 85 1012.0
20260507124127 51 350 2.0 3.0 0.00 0.37 0.21 85 1012.1
20260507124043 51 332 2.0 3.0 0.00 0.37 0.21 85 1012.1
20260507123918 51 356 2.0 3.0 0.00 0.37 0.21 85 1012.1
20260507123830 51 2 2.0 3.0 0.00 0.37 0.21 85 1012.1
20260507123726 51 31 1.0 3.0 0.00 0.37 0.21 85 1012.2
20260507123621 51 316 1.0 2.0 0.00 0.37 0.21 86 1012.3
20260507123557 51 18 2.0 4.0 0.00 0.37 0.21 86 1012.4
20260507123448 51 55 2.0 3.0 0.00 0.37 0.21 86 1012.1
20260507123324 51 9 2.0 2.0 0.00 0.37 0.21 87 1012.4
20260507123220 51 27 1.0 2.0 0.00 0.37 0.21 87 1012.3
20260507123116 51 39 0.0 2.0 0.00 0.37 0.21 87 1012.2
20260507123047 51 18 0.0 3.0 0.00 0.37 0.21 87 1012.2
20260507122923 51 49 1.0 3.0 0.00 0.37 0.21 87 1012.3
20260507122838 51 89 1.0 2.0 0.00 0.37 0.21 87 1012.2
20260507122730 50 281 1.0 4.0 0.00 0.37 0.21 87 1012.3
20260507122626 50 18 1.0 3.0 0.00 0.37 0.21 87 1012.2
20260507122521 51 17 1.0 2.0 0.00 0.37 0.21 88 1012.1
20260507122417 50 53 2.0 2.0 0.00 0.37 0.21 88 1012.2
20260507122329 50 55 1.0 2.0 0.00 0.37 0.21 88 1012.2
20260507122224 50 77 1.0 2.0 0.00 0.37 0.21 88 1012.2
20260507122120 50 1 0.0 2.0 0.00 0.37 0.21 88 1012.2
20260507122015 50 320 2.0 5.0 0.00 0.37 0.21 88 1012.2
20260507121927 50 147 2.0 3.0 0.00 0.37 0.21 89 1012.1
20260507121823 50 29 2.0 4.0 0.00 0.37 0.21 89 1012.2
20260507121718 50 35 2.0 3.0 0.00 0.37 0.21 89 1012.3
20260507121630 50 83 1.0 2.0 0.00 0.37 0.21 89 1012.3
20260507121546 50 159 1.0 2.0 0.00 0.37 0.21 89 1012.1
20260507121421 50 163 1.0 2.0 0.00 0.37 0.21 89 1012.3
20260507121317 50 0.0 2.0 0.00 0.37 0.21 89 1012.3
20260507121228 50 350 1.0 2.0 0.00 0.37 0.21 89 1012.2
20260507121144 50 73 2.0 2.0 0.00 0.37 0.21 89 1012.2
20260507121019 50 153 1.0 2.0 0.00 0.37 0.21 89 1012.1
20260507120915 50 30 1.0 2.0 0.00 0.37 0.21 89 1012.2
20260507120826 50 59 1.0 2.0 0.00 0.37 0.21 90 1012.2
20260507120722 50 161 1.0 3.0 0.00 0.37 0.21 90 1012.1
20260507120618 50 325 2.0 4.0 0.00 0.37 0.21 90 1012.1
20260507120530 50 348 2.0 4.0 0.00 0.37 0.21 91 1012.1
20260507120425 50 86 1.0 3.0 0.00 0.37 0.21 91 1012.1
20260507120341 50 216 1.0 2.0 0.00 0.37 0.21 91 1012.3
20260507120216 50 316 1.0 2.0 0.00 0.37 0.21 91 1012.2
20260507120128 50 99 1.0 2.0 0.00 0.37 0.21 91 1012.2
20260507120024 50 19 1.0 2.0 0.00 0.37 0.21 91 1012.1
20260507115919 50 47 0.0 2.0 0.00 0.37 0.21 91 1012.2
20260507115831 50 108 1.0 2.0 0.00 0.37 0.21 91 1012.2
20260507115726 50 100 1.0 2.0 0.00 0.37 0.21 91 1012.3
20260507115642 50 50 0.0 2.0 0.00 0.37 0.21 91 1012.2
20260507115518 50 151 1.0 2.0 0.00 0.37 0.21 91 1012.1
20260507115429 50 21 1.0 2.0 0.00 0.37 0.21 91 1012.1
20260507115325 50 347 0.0 2.0 0.00 0.37 0.21 91 1011.9
20260507115220 50 16 0.0 2.0 0.00 0.37 0.21 91 1012.0
20260507115116 50 150 0.0 2.0 0.00 0.37 0.21 91 1011.9
20260507115028 50 354 0.0 2.0 0.00 0.37 0.21 91 1012.0
20260507114923 50 153 1.0 2.0 0.00 0.37 0.21 91 1011.8
20260507114819 50 146 1.0 2.0 0.00 0.37 0.21 91 1012.1
20260507114731 50 137 1.0 2.0 0.00 0.37 0.21 91 1012.1
20260507114626 50 112 0.0 2.0 0.00 0.37 0.21 91 1012.1
20260507114522 50 131 1.0 2.0 0.00 0.37 0.21 91 1012.0
20260507114417 49 51 0.0 2.0 0.00 0.37 0.21 91 1012.1
20260507114329 49 101 0.0 2.0 0.00 0.37 0.21 91 1011.8
20260507114244 50 157 1.0 2.0 0.00 0.37 0.21 92 1012.0
20260507114120 50 336 1.0 2.0 0.00 0.37 0.21 92 1012.0
20260507114016 49 119 0.0 2.0 0.00 0.37 0.21 92 1012.0
20260507113927 49 152 2.0 2.0 0.00 0.37 0.21 92 1011.9
20260507113823 49 116 0.0 2.0 0.00 0.37 0.21 92 1011.9
20260507113719 49 39 0.0 2.0 0.00 0.37 0.21 92 1011.9
20260507113650 49 57 1.0 1.0 0.00 0.37 0.21 92 1011.8
20260507113546 49 0.0 2.0 0.00 0.37 0.21 92 1011.8
20260507113441 49 141 2.0 2.0 0.00 0.37 0.21 92 1011.8
20260507113317 49 91 1.0 2.0 0.00 0.37 0.21 92 1011.9
20260507113229 49 111 1.0 2.0 0.00 0.37 0.21 92 1011.6
20260507113124 49 35 1.0 2.0 0.00 0.37 0.21 92 1011.6
20260507113020 49 291 0.0 2.0 0.00 0.37 0.21 92 1011.8
20260507112915 49 66 0.0 2.0 0.00 0.37 0.21 92 1011.9
20260507112827 49 103 1.0 2.0 0.00 0.37 0.21 92 1011.9
20260507112723 49 154 2.0 2.0 0.00 0.37 0.21 92 1011.9
20260507112618 49 128 0.0 2.0 0.00 0.37 0.21 92 1011.9
20260507112530 49 162 2.0 2.0 0.00 0.37 0.21 92 1011.8
20260507112446 49 160 1.0 2.0 0.00 0.37 0.21 92 1011.9
20260507112341 49 0.0 2.0 0.00 0.37 0.21 92 1011.8
20260507112217 49 157 1.0 2.0 0.00 0.37 0.21 92 1011.8
20260507112129 49 153 1.0 2.0 0.00 0.37 0.21 92 1011.6
20260507112024 49 13 2.0 2.0 0.00 0.37 0.21 92 1011.5
20260507111920 49 0.0 1.0 0.00 0.37 0.21 92 1011.5
20260507111816 49 135 1.0 2.0 0.00 0.37 0.21 92 1011.6
20260507111727 49 39 0.0 2.0 0.00 0.37 0.21 92 1011.5
20260507111623 49 75 0.0 1.0 0.00 0.37 0.21 92 1011.7
20260507111519 49 127 1.0 2.0 0.00 0.37 0.21 92 1011.6
20260507111430 49 45 0.0 2.0 0.00 0.37 0.21 93 1011.5
20260507111325 49 136 1.0 2.0 0.00 0.37 0.21 93 1011.7
20260507111221 49 154 1.0 2.0 0.00 0.37 0.21 93 1011.7
20260507111117 49 0.0 1.0 0.00 0.37 0.21 93 1011.5
20260507111029 49 343 1.0 2.0 0.00 0.37 0.21 93 1011.6
20260507110925 49 267 0.0 2.0 0.00 0.37 0.21 93 1011.4
20260507110820 49 85 0.0 1.0 0.00 0.37 0.21 93 1011.4
20260507110716 49 33 0.0 2.0 0.00 0.37 0.21 93 1011.5
20260507110627 49 25 0.0 2.0 0.00 0.37 0.21 93 1011.6
20260507110523 49 113 1.0 2.0 0.00 0.37 0.21 93 1011.6
20260507110418 49 53 1.0 2.0 0.00 0.37 0.21 93 1011.5
20260507110330 49 79 2.0 2.0 0.00 0.37 0.21 93 1011.6
20260507110225 49 21 1.0 2.0 0.00 0.37 0.21 93 1011.5
20260507110121 49 59 1.0 2.0 0.00 0.37 0.21 93 1011.3
20260507110037 49 29 1.0 2.0 0.00 0.37 0.21 93 1011.4
20260507105928 49 38 2.0 3.0 0.00 0.37 0.21 93 1011.4
20260507105823 49 13 1.0 2.0 0.00 0.37 0.21 93 1011.4
20260507105719 49 61 1.0 2.0 0.00 0.37 0.21 93 1011.3
20260507105631 49 0.0 2.0 0.00 0.37 0.21 93 1011.3
20260507105526 49 59 0.0 2.0 0.00 0.37 0.21 93 1011.3
20260507105502 49 146 1.0 2.0 0.00 0.37 0.21 93 1011.3
20260507105318 49 0.0 1.0 0.00 0.37 0.21 93 1011.4
20260507105229 49 0.0 2.0 0.00 0.37 0.21 93 1011.3
20260507105125 49 123 1.0 2.0 0.00 0.37 0.21 93 1011.3
20260507105020 49 103 0.0 2.0 0.00 0.37 0.21 93 1011.3
20260507104936 49 0.0 2.0 0.00 0.37 0.21 93 1011.2
20260507104828 49 82 0.0 2.0 0.00 0.37 0.21 93 1011.1
20260507104723 49 139 1.0 2.0 0.00 0.37 0.21 93 1011.1
20260507104619 49 159 1.0 2.0 0.00 0.37 0.21 93 1011.3
20260507104531 49 147 1.0 2.0 0.00 0.37 0.21 93 1011.2
20260507104426 49 147 0.0 2.0 0.00 0.37 0.21 93 1011.0
20260507104342 49 151 1.0 2.0 0.00 0.37 0.21 93 1011.1
20260507104238 49 136 1.0 2.0 0.00 0.37 0.21 93 1011.1
20260507104129 49 114 0.0 2.0 0.00 0.37 0.21 93 1011.1
20260507104025 49 168 1.0 2.0 0.00 0.37 0.21 93 1011.1
20260507103920 49 30 0.0 2.0 0.00 0.37 0.21 93 1011.3
20260507103816 49 125 1.0 2.0 0.00 0.37 0.21 93 1011.2
20260507103728 49 137 1.0 3.0 0.00 0.37 0.21 93 1011.2
20260507103623 49 62 1.0 2.0 0.00 0.37 0.21 93 1011.2
20260507103519 49 95 1.0 2.0 0.00 0.37 0.21 93 1011.2
20260507103450 49 170 1.0 3.0 0.00 0.37 0.21 93 1011.3
20260507103326 49 114 1.0 2.0 0.00 0.37 0.21 93 1011.3
20260507103221 49 134 1.0 2.0 0.00 0.37 0.21 93 1011.2
20260507103117 49 107 1.0 2.0 0.00 0.37 0.21 93 1011.3
20260507103029 49 139 0.0 3.0 0.00 0.37 0.21 93 1011.3
20260507102924 49 139 2.0 2.0 0.00 0.37 0.21 93 1011.2
20260507102840 49 0.0 1.0 0.00 0.37 0.21 93 1011.0
20260507102716 49 95 1.0 2.0 0.00 0.37 0.21 93 1011.2
20260507102627 49 146 1.0 3.0 0.00 0.37 0.21 93 1011.0
20260507102543 49 0.0 2.0 0.00 0.37 0.21 93 1011.1
20260507102418 49 21 1.0 2.0 0.00 0.37 0.21 93 1011.1
20260507102330 49 63 1.0 2.0 0.00 0.37 0.21 93 1011.0
20260507102226 49 16 0.0 2.0 0.00 0.37 0.21 93 1011.0
20260507102121 49 0.0 2.0 0.00 0.37 0.21 94 1011.1
20260507102017 49 14 1.0 2.0 0.00 0.37 0.21 94 1011.2
20260507101929 49 114 1.0 2.0 0.00 0.37 0.21 93 1011.1
20260507101824 49 60 1.0 2.0 0.00 0.37 0.21 94 1010.9
20260507101720 49 0.0 2.0 0.00 0.37 0.21 93 1011.0
20260507101615 49 0.0 1.0 0.00 0.37 0.21 93 1010.9
20260507101527 49 158 1.0 2.0 0.00 0.37 0.21 93 1010.9
20260507101443 49 145 1.0 2.0 0.00 0.37 0.21 93 1011.1
20260507101318 49 0.0 2.0 0.00 0.37 0.21 93 1010.9
20260507101250 49 60 1.0 3.0 0.00 0.37 0.21 93 1010.9
20260507101125 49 71 1.0 2.0 0.00 0.37 0.21 94 1010.7
20260507101101 49 0.0 2.0 0.00 0.37 0.21 94 1010.8
20260507100916 49 133 1.0 2.0 0.00 0.37 0.21 94 1010.8
20260507100828 49 137 1.0 2.0 0.00 0.37 0.21 94 1010.8
20260507100723 49 138 1.0 2.0 0.00 0.37 0.21 94 1010.8
20260507100619 49 0.0 2.0 0.00 0.37 0.21 94 1010.6
20260507100515 49 93 0.0 2.0 0.00 0.37 0.21 94 1010.7
20260507100427 49 119 0.0 2.0 0.00 0.37 0.21 94 1010.8
20260507100322 49 68 1.0 2.0 0.00 0.37 0.21 94 1010.6
20260507100218 49 34 1.0 2.0 0.00 0.37 0.21 94 1010.7
20260507100130 49 37 2.0 3.0 0.00 0.37 0.21 94 1010.8
20260507100025 49 109 1.0 2.0 0.00 0.37 0.21 94 1010.8
20260507095921 49 146 0.0 2.0 0.00 0.37 0.21 94 1010.8
20260507095816 49 86 1.0 2.0 0.00 0.37 0.21 94 1010.7
20260507095728 49 71 1.0 2.0 0.00 0.37 0.21 94 1010.8
20260507095624 49 359 1.0 3.0 0.00 0.37 0.21 94 1010.8
20260507095519 49 333 2.0 4.0 0.00 0.37 0.21 94 1010.7
20260507095415 49 75 1.0 2.0 0.00 0.37 0.21 94 1010.6
20260507095326 49 68 2.0 3.0 0.00 0.37 0.21 94 1010.8
20260507095242 49 0.0 2.0 0.00 0.37 0.21 94 1010.7
20260507095117 49 0.0 2.0 0.00 0.37 0.21 94 1010.7
20260507095049 49 93 1.0 4.0 0.00 0.37 0.21 94 1010.6
20260507094925 49 28 2.0 3.0 0.00 0.37 0.21 94 1010.6
20260507094841 49 76 1.0 2.0 0.00 0.37 0.21 94 1010.7
20260507094716 49 126 1.0 2.0 0.00 0.37 0.21 94 1010.7
20260507094628 49 93 1.0 4.0 0.00 0.37 0.21 94 1010.5
20260507094523 49 16 2.0 4.0 0.00 0.37 0.21 94 1010.5
20260507094419 49 345 0.0 2.0 0.00 0.37 0.21 94 1010.7
20260507094331 49 109 2.0 4.0 0.00 0.37 0.21 94 1010.7
20260507094246 49 43 2.0 2.0 0.00 0.37 0.21 94 1010.7
20260507094122 49 55 1.0 3.0 0.00 0.37 0.21 95 1010.6
20260507094018 49 216 1.0 3.0 0.00 0.37 0.21 95 1010.5
20260507093929 49 155 1.0 3.0 0.00 0.37 0.21 95 1010.5
20260507093825 49 166 2.0 3.0 0.00 0.37 0.21 95 1010.3
20260507093721 49 201 0.0 2.0 0.00 0.37 0.21 95 1010.4
20260507093616 49 90 1.0 2.0 0.00 0.37 0.21 95 1010.5
20260507093528 49 56 2.0 2.0 0.00 0.37 0.21 95 1010.5
20260507093424 49 4 0.0 3.0 0.00 0.37 0.21 95 1010.6
20260507093319 49 360 1.0 2.0 0.00 0.37 0.21 95 1010.4
20260507093231 49 70 1.0 2.0 0.00 0.37 0.21 95 1010.6
20260507093126 49 36 1.0 2.0 0.00 0.37 0.21 95 1010.4
20260507093022 49 63 1.0 3.0 0.00 0.37 0.21 95 1010.6
20260507092918 49 119 1.0 2.0 0.00 0.37 0.21 95 1010.6
20260507092849 49 151 0.0 2.0 0.00 0.37 0.21 95 1010.4
20260507092725 49 21 2.0 2.0 0.00 0.37 0.21 95 1010.4
20260507092621 49 51 1.0 2.0 0.00 0.37 0.21 95 1010.5
20260507092516 49 106 1.0 2.0 0.01 0.37 0.21 95 1010.5
20260507092428 49 123 1.0 2.0 0.01 0.37 0.21 95 1010.5
20260507092324 49 62 1.0 2.0 0.01 0.37 0.21 95 1010.4
20260507092219 49 26 2.0 3.0 0.01 0.37 0.21 95 1010.6
20260507092131 49 1 1.0 2.0 0.01 0.37 0.21 95 1010.5
20260507092027 49 69 1.0 3.0 0.01 0.37 0.21 95 1010.3
20260507091922 49 53 1.0 2.0 0.01 0.37 0.21 95 1010.6
20260507091818 49 309 1.0 3.0 0.01 0.37 0.21 95 1010.5
20260507091730 49 342 2.0 3.0 0.02 0.37 0.21 95 1010.3
20260507091625 49 346 1.0 3.0 0.02 0.37 0.21 96 1010.5
20260507091521 49 71 1.0 2.0 0.02 0.37 0.21 96 1010.3
20260507091416 49 20 2.0 3.0 0.02 0.37 0.21 96 1010.2
20260507091328 49 24 2.0 3.0 0.02 0.37 0.21 96 1010.4
20260507091224 49 8 1.0 2.0 0.02 0.37 0.21 96 1010.3
20260507091119 49 65 1.0 2.0 0.02 0.37 0.21 96 1010.5
20260507091035 49 40 1.0 3.0 0.02 0.37 0.21 96 1010.5
20260507090947 49 354 2.0 2.0 0.02 0.37 0.21 96 1010.3
20260507090823 49 38 2.0 3.0 0.02 0.37 0.21 96 1010.5
20260507090718 49 359 0.0 2.0 0.02 0.37 0.21 96 1010.6
20260507090650 49 216 2.0 2.0 0.02 0.37 0.21 96 1010.4
20260507090525 49 36 1.0 2.0 0.02 0.37 0.21 96 1010.3
20260507090421 49 31 2.0 3.0 0.02 0.37 0.21 96 1010.4
20260507090316 49 131 1.0 2.0 0.02 0.37 0.21 96 1010.4
20260507090228 49 39 1.0 3.0 0.02 0.37 0.21 96 1010.6
20260507090124 49 54 1.0 3.0 0.02 0.37 0.21 96 1010.4
20260507090019 49 75 1.0 2.0 0.02 0.37 0.21 96 1010.4
20260507085915 49 60 1.0 2.0 0.02 0.37 0.21 96 1010.4
20260507085847 49 0.0 2.0 0.02 0.37 0.21 96 1010.3
20260507085722 49 105 1.0 3.0 0.02 0.37 0.21 96 1010.5
20260507085638 49 349 1.0 3.0 0.02 0.37 0.21 96 1010.4
20260507085530 49 86 1.0 3.0 0.02 0.37 0.21 96 1010.7
20260507085425 49 112 1.0 2.0 0.02 0.37 0.21 96 1010.6
20260507085321 49 128 1.0 2.0 0.02 0.37 0.21 96 1010.3
20260507085236 49 86 1.0 2.0 0.02 0.37 0.21 96 1010.5
20260507085128 49 91 0.0 2.0 0.02 0.37 0.21 96 1010.4
20260507085024 49 336 1.0 3.0 0.02 0.37 0.21 96 1010.7
20260507084920 49 0.0 2.0 0.02 0.37 0.21 96 1010.5
20260507084815 49 346 1.0 3.0 0.02 0.37 0.21 96 1010.7
20260507084727 49 14 0.0 2.0 0.02 0.37 0.21 96 1010.5
20260507084622 49 0.0 2.0 0.02 0.37 0.21 96 1010.4
20260507084518 49 150 1.0 2.0 0.02 0.37 0.21 95 1010.3
20260507084430 49 115 0.0 2.0 0.03 0.37 0.21 95 1010.3
20260507084325 49 188 1.0 2.0 0.03 0.37 0.21 95 1010.6
20260507084220 49 58 1.0 2.0 0.03 0.37 0.21 95 1010.5
20260507084116 49 160 0.0 2.0 0.03 0.37 0.21 95 1010.5
20260507084028 49 134 0.0 1.0 0.03 0.37 0.21 95 1010.6
20260507083923 49 72 1.0 2.0 0.03 0.36 0.21 95 1010.5
20260507083839 49 0.0 0.0 0.03 0.36 0.21 95 1010.5
20260507083730 49 136 1.0 2.0 0.03 0.36 0.21 95 1010.5
20260507083626 49 146 1.0 2.0 0.03 0.36 0.21 95 1010.6
20260507083522 49 84 1.0 2.0 0.04 0.36 0.21 95 1010.7
20260507083437 49 0.0 0.0 0.04 0.36 0.21 95 1010.5
20260507083329 49 123 1.0 2.0 0.04 0.36 0.21 95 1010.6
20260507083225 49 0.0 2.0 0.04 0.36 0.21 95 1010.6
20260507083140 49 13 1.0 2.0 0.04 0.36 0.21 95 1010.5
20260507083036 49 95 0.0 2.0 0.04 0.36 0.21 95 1010.6
20260507082928 49 159 1.0 3.0 0.04 0.36 0.21 95 1010.5
20260507082822 49 336 2.0 3.0 0.04 0.36 0.21 95 1010.7
20260507082718 49 172 1.0 4.0 0.04 0.36 0.21 95 1010.7
20260507082629 49 136 1.0 3.0 0.04 0.36 0.21 95 1010.8
20260507082524 49 162 2.0 3.0 0.03 0.36 0.20 95 1010.6
20260507082419 49 125 1.0 2.0 0.03 0.36 0.20 95 1010.8
20260507082331 49 169 2.0 2.0 0.03 0.36 0.20 95 1010.4
20260507082237 49 152 2.0 3.0 0.03 0.35 0.20 95 1010.4
20260507082120 49 68 1.0 3.0 0.03 0.35 0.20 95 1010.6
20260507082016 49 341 2.0 3.0 0.03 0.35 0.20 95 1010.6
20260507081927 49 29 1.0 3.0 0.03 0.35 0.20 95 1010.6
20260507081822 49 23 1.0 2.0 0.03 0.35 0.20 95 1010.5
20260507081723 49 0 1.0 4.0 0.02 0.35 0.20 95 1010.6
20260507081629 49 5 2.0 4.0 0.02 0.35 0.20 95 1010.5
20260507081523 49 329 2.0 4.0 0.02 0.35 0.20 95 1010.7
20260507081419 49 253 1.0 2.0 0.02 0.35 0.19 95 1010.4
20260507081330 49 138 1.0 2.0 0.02 0.35 0.19 95 1010.5
20260507081225 49 339 2.0 4.0 0.02 0.35 0.19 94 1010.4
20260507081140 49 346 1.0 3.0 0.02 0.35 0.19 95 1010.4
20260507081016 49 15 2.0 3.0 0.02 0.35 0.19 95 1010.6
20260507080929 49 358 3.0 4.0 0.02 0.35 0.19 94 1010.5
20260507080822 49 39 2.0 3.0 0.02 0.35 0.19 95 1010.5
20260507080738 49 0.0 1.0 0.02 0.34 0.19 95 1010.7
20260507080625 49 153 1.0 2.0 0.02 0.34 0.19 95 1010.6
20260507080537 49 163 2.0 2.0 0.02 0.34 0.19 94 1010.6
20260507080420 49 157 1.0 3.0 0.03 0.34 0.19 94 1010.5
20260507080316 49 105 1.0 2.0 0.03 0.34 0.19 94 1010.4
20260507080249 49 19 2.0 4.0 0.03 0.34 0.19 94 1010.3
20260507080123 49 58 2.0 3.0 0.03 0.34 0.19 94 1010.4
20260507080019 49 349 3.0 6.0 0.03 0.34 0.19 94 1010.6
20260507075929 49 351 2.0 4.0 0.03 0.34 0.19 94 1010.8
20260507075824 49 333 2.0 4.0 0.03 0.34 0.19 95 1010.8
20260507075739 49 174 2.0 2.0 0.04 0.34 0.19 94 1010.7
20260507075642 49 106 0.0 4.0 0.04 0.34 0.19 95 1010.6
20260507075524 49 323 2.0 4.0 0.04 0.34 0.19 95 1010.6
20260507075458 49 296 2.0 2.0 0.04 0.34 0.19 95 1010.5
20260507075330 49 348 2.0 4.0 0.04 0.34 0.19 95 1010.3
20260507075225 49 20 2.0 3.0 0.05 0.34 0.19 95 1010.4
20260507075121 49 22 1.0 3.0 0.05 0.34 0.19 95 1010.4
20260507075016 49 6 2.0 3.0 0.06 0.34 0.19 95 1010.6
20260507074928 49 25 2.0 4.0 0.06 0.34 0.19 95 1010.7
20260507074823 49 351 2.0 4.0 0.06 0.34 0.19 95 1010.8
20260507074719 49 176 2.0 3.0 0.06 0.34 0.19 95 1010.7
20260507074631 49 30 1.0 3.0 0.06 0.34 0.19 95 1010.7
20260507074526 49 357 1.0 2.0 0.06 0.34 0.19 95 1010.7
20260507074442 50 66 2.0 4.0 0.06 0.34 0.19 95 1010.7
20260507074317 50 49 2.0 3.0 0.06 0.34 0.19 95 1010.5
20260507074229 50 57 2.0 3.0 0.06 0.34 0.19 95 1010.4
20260507074145 50 9 3.0 4.0 0.05 0.33 0.18 95 1010.4
20260507074021 50 17 3.0 4.0 0.05 0.33 0.18 95 1010.6
20260507073916 50 40 4.0 5.0 0.05 0.33 0.18 95 1010.9
20260507073848 50 351 2.0 4.0 0.06 0.33 0.18 95 1010.9
20260507073723 50 46 2.0 4.0 0.06 0.33 0.18 95 1011.2
20260507073619 50 208 2.0 3.0 0.06 0.33 0.18 95 1011.3
20260507073530 50 32 1.0 3.0 0.06 0.33 0.17 95 1011.2
20260507073426 50 314 2.0 4.0 0.06 0.33 0.17 95 1010.9
20260507073341 50 316 2.0 4.0 0.07 0.33 0.17 95 1010.8
20260507073217 50 359 1.0 3.0 0.07 0.33 0.17 95 1010.9
20260507073129 50 36 1.0 3.0 0.07 0.33 0.17 95 1010.8
20260507073024 50 157 2.0 3.0 0.07 0.33 0.17 95 1010.6
20260507072920 50 0.0 1.0 0.07 0.33 0.17 95 1010.6
20260507072835 50 48 2.0 4.0 0.07 0.33 0.17 95 1010.6
20260507072727 50 7 3.0 5.0 0.08 0.33 0.17 95 1010.7
20260507072643 50 7 2.0 3.0 0.08 0.33 0.17 95 1010.9
20260507072518 50 102 1.0 2.0 0.08 0.33 0.17 95 1010.9
20260507072430 50 123 1.0 2.0 0.08 0.33 0.17 95 1010.8
20260507072325 50 142 2.0 3.0 0.09 0.33 0.17 94 1010.7
20260507072221 50 204 1.0 2.0 0.09 0.33 0.17 94 1010.4
20260507072117 50 201 2.0 3.0 0.09 0.33 0.17 94 1010.4
20260507072028 50 33 1.0 3.0 0.09 0.33 0.17 94 1010.2
20260507071924 50 18 2.0 3.0 0.09 0.33 0.17 94 1010.3
20260507071819 50 10 1.0 3.0 0.09 0.33 0.17 94 1010.8
20260507071715 50 4 1.0 3.0 0.09 0.33 0.17 94 1010.7
20260507071626 50 19 2.0 3.0 0.09 0.33 0.17 94 1010.6
20260507071542 50 85 1.0 3.0 0.09 0.33 0.17 94 1010.7
20260507071418 50 160 1.0 3.0 0.10 0.33 0.17 94 1010.8
20260507071330 50 68 1.0 2.0 0.10 0.33 0.17 94 1010.8
20260507071225 50 335 2.0 3.0 0.09 0.32 0.17 94 1010.6
20260507071121 50 72 2.0 4.0 0.09 0.32 0.17 94 1010.8
20260507071016 50 41 2.0 4.0 0.10 0.32 0.17 94 1010.7
20260507071008 50 318 0.0 4.0 0.10 0.32 0.17 94 1010.7
20260507070844 50 164 1.0 2.0 0.10 0.32 0.17 94 1010.8
20260507070719 50 131 2.0 3.0 0.10 0.32 0.17 94 1010.8
20260507070615 50 160 1.0 2.0 0.10 0.32 0.17 94 1010.7
20260507070527 50 183 1.0 3.0 0.11 0.32 0.17 94 1010.7
20260507070422 50 5 2.0 5.0 0.10 0.31 0.16 94 1010.5
20260507070318 50 354 3.0 3.0 0.11 0.31 0.16 94 1010.4
20260507070229 50 44 0.0 3.0 0.11 0.31 0.16 94 1010.5
20260507070125 50 62 2.0 3.0 0.11 0.31 0.16 94 1010.8
20260507070021 50 46 1.0 2.0 0.11 0.31 0.16 94 1010.9
20260507065916 51 103 0.0 2.0 0.11 0.31 0.16 94 1011.0
20260507065828 51 141 1.0 2.0 0.11 0.31 0.16 94 1011.1
20260507065724 51 141 2.0 2.0 0.11 0.31 0.15 94 1010.7
20260507065659 51 160 1.0 3.0 0.11 0.31 0.15 94 1010.7
20260507065531 51 170 2.0 3.0 0.12 0.31 0.15 94 1010.6
20260507065426 51 137 1.0 2.0 0.11 0.30 0.15 94 1010.6
20260507065323 51 63 2.0 3.0 0.11 0.30 0.15 94 1010.5
20260507065217 51 20 3.0 4.0 0.11 0.30 0.14 94 1010.6
20260507065129 51 20 2.0 3.0 0.11 0.29 0.14 94 1010.6
20260507065024 51 6 3.0 4.0 0.10 0.29 0.13 94 1010.7
20260507064919 51 355 1.0 3.0 0.10 0.29 0.13 94 1010.5
20260507064815 51 195 1.0 2.0 0.11 0.29 0.13 94 1010.8
20260507064727 51 334 1.0 3.0 0.11 0.29 0.13 94 1010.8
20260507064623 51 77 1.0 2.0 0.10 0.28 0.13 94 1010.7
20260507064518 51 157 2.0 4.0 0.11 0.28 0.13 94 1010.8
20260507064430 51 149 2.0 4.0 0.11 0.28 0.13 94 1010.7
20260507064325 51 7 1.0 2.0 0.11 0.28 0.13 94 1010.8
20260507064241 51 0.0 2.0 0.11 0.28 0.13 94 1010.7
20260507064117 51 335 1.0 2.0 0.11 0.28 0.13 93 1010.8
20260507064029 51 336 3.0 4.0 0.11 0.28 0.13 94 1010.6
20260507063924 51 31 2.0 4.0 0.10 0.28 0.13 94 1010.6
20260507063820 51 172 2.0 4.0 0.10 0.28 0.12 94 1010.5
20260507063715 51 112 1.0 2.0 0.09 0.27 0.12 94 1010.4
20260507063627 51 346 2.0 4.0 0.09 0.27 0.11 94 1010.2
20260507063522 51 349 3.0 5.0 0.09 0.27 0.11 94 1010.5
20260507063418 51 322 4.0 6.0 0.09 0.26 0.11 94 1010.6
20260507063329 51 311 2.0 5.0 0.09 0.26 0.11 94 1010.5
20260507063225 51 46 1.0 3.0 0.09 0.26 0.11 94 1010.5
20260507063121 51 174 2.0 3.0 0.08 0.26 0.10 94 1010.6
20260507063016 51 172 1.0 2.0 0.08 0.25 0.10 94 1010.5
20260507062928 51 165 1.0 2.0 0.09 0.25 0.10 94 1010.4
20260507062823 51 287 1.0 2.0 0.09 0.25 0.10 94 1010.4
20260507062719 51 261 2.0 4.0 0.09 0.25 0.09 94 1010.4
20260507062630 51 8 1.0 2.0 0.09 0.25 0.09 94 1010.6
20260507062526 51 57 1.0 2.0 0.09 0.24 0.09 94 1010.6
20260507062421 51 330 1.0 2.0 0.09 0.24 0.09 94 1010.5
20260507062316 51 138 1.0 2.0 0.08 0.24 0.09 94 1010.7
20260507062228 51 175 1.0 2.0 0.08 0.24 0.09 94 1010.4
20260507062124 52 193 1.0 2.0 0.08 0.24 0.08 94 1010.4
20260507062019 52 205 1.0 2.0 0.08 0.24 0.08 94 1010.4
20260507061931 52 106 1.0 2.0 0.08 0.23 0.08 94 1010.3
20260507061846 52 130 1.0 2.0 0.08 0.23 0.08 94 1010.1
20260507061722 52 80 1.0 2.0 0.08 0.23 0.08 94 1010.2
20260507061617 52 329 1.0 3.0 0.08 0.23 0.08 94 1010.0
20260507061529 52 16 1.0 3.0 0.08 0.23 0.08 94 1010.3
20260507061425 52 124 1.0 2.0 0.07 0.23 0.07 94 1010.5
20260507061340 52 166 0.0 1.0 0.07 0.23 0.07 94 1010.6
20260507061216 52 190 1.0 2.0 0.07 0.23 0.07 94 1010.6
20260507061148 52 181 1.0 2.0 0.07 0.23 0.07 94 1010.7
20260507061043 52 160 1.0 2.0 0.07 0.22 0.07 94 1010.5
20260507060919 52 157 1.0 2.0 0.07 0.22 0.07 94 1010.6
20260507060831 52 162 1.0 2.0 0.07 0.22 0.07 94 1010.6
20260507060746 52 141 1.0 2.0 0.07 0.22 0.07 93 1010.5
20260507060622 52 204 1.0 2.0 0.06 0.22 0.06 93 1010.5
20260507060517 52 153 2.0 2.0 0.06 0.21 0.06 93 1010.3
20260507060429 52 204 1.0 2.0 0.06 0.21 0.06 93 1010.4
20260507060325 53 326 1.0 2.0 0.06 0.21 0.06 93 1010.2
20260507060320 53 306 1.0 2.0 0.06 0.21 0.06 93 1010.4
20260507060115 53 95 1.0 2.0 0.05 0.20 0.05 93 1010.5
20260507060026 53 139 2.0 2.0 0.05 0.20 0.05 93 1010.5
20260507055922 53 139 0.0 2.0 0.04 0.20 0.04 93 1010.7
20260507055818 53 193 1.0 2.0 0.04 0.20 0.04 92 1010.3
20260507055729 53 168 1.0 2.0 0.04 0.19 0.04 92 1010.5
20260507055625 52 170 2.0 2.0 0.04 0.19 0.04 92 1010.2
20260507055520 52 50 2.0 3.0 0.04 0.19 0.04 92 1010.2
20260507055416 52 350 2.0 3.0 0.03 0.19 0.03 91 1010.2
20260507055328 52 13 2.0 3.0 0.03 0.19 0.03 91 1010.0
20260507055223 52 350 1.0 4.0 0.03 0.19 0.03 91 1009.9
20260507055119 52 0.0 1.0 0.03 0.19 0.03 91 1009.9
20260507055031 53 207 1.0 2.0 0.03 0.19 0.03 91 1009.7
20260507054926 53 160 1.0 2.0 0.03 0.19 0.03 91 1009.5
20260507054822 53 80 2.0 3.0 0.03 0.18 0.03 91 1009.4
20260507054717 53 39 1.0 1.0 0.03 0.18 0.03 91 1009.5
20260507054629 53 0.0 1.0 0.03 0.18 0.03 91 1009.6
20260507054525 53 70 1.0 2.0 0.02 0.18 0.02 91 1009.6
20260507054440 53 41 2.0 2.0 0.02 0.18 0.02 90 1009.7
20260507054316 53 31 1.0 2.0 0.02 0.18 0.02 90 1009.8
20260507054247 53 55 2.0 3.0 0.02 0.18 0.02 90 1010.0
20260507054123 53 18 1.0 2.0 0.02 0.18 0.02 90 1010.0
20260507054019 53 70 1.0 2.0 0.02 0.18 0.02 89 1009.9
20260507053930 53 57 2.0 2.0 0.02 0.18 0.02 89 1010.1
20260507053826 53 74 2.0 3.0 0.02 0.18 0.02 89 1010.1
20260507053722 53 3 1.0 2.0 0.02 0.18 0.02 89 1010.2
20260507053617 53 91 2.0 3.0 0.02 0.18 0.02 89 1010.4
20260507053529 53 122 1.0 2.0 0.02 0.18 0.02 89 1010.4
20260507053444 53 113 1.0 2.0 0.02 0.17 0.02 88 1010.2
20260507053320 53 63 2.0 2.0 0.02 0.17 0.02 88 1010.3
20260507053216 54 331 2.0 4.0 0.02 0.17 0.02 88 1010.1
20260507053147 54 339 2.0 4.0 0.02 0.17 0.02 88 1010.0
20260507053023 54 36 1.0 2.0 0.02 0.17 0.02 87 1009.8
20260507052958 54 107 0.0 2.0 0.01 0.17 0.01 87 1009.8
20260507052830 54 54 1.0 2.0 0.01 0.16 0.01 87 1009.9
20260507052745 54 51 1.0 2.0 0.00 0.16 0.00 87 1009.7
20260507052621 54 29 1.0 2.0 0.00 0.16 0.00 87 1010.0
20260507052517 54 0.0 2.0 0.00 0.16 0.00 87 1010.1
20260507052428 54 146 1.0 2.0 0.00 0.16 0.00 86 1010.1
20260507052324 54 166 1.0 2.0 0.00 0.16 0.00 86 1009.8
20260507052219 54 148 1.0 2.0 0.00 0.16 0.00 86 1010.0
20260507052135 54 137 1.0 3.0 0.00 0.16 0.00 86 1009.9
20260507052027 54 132 1.0 2.0 0.00 0.15 0.00 86 1009.7
20260507051922 54 5 1.0 2.0 0.00 0.15 0.00 86 1009.9
20260507051818 54 26 2.0 3.0 0.00 0.15 0.00 85 1009.7
20260507051730 54 349 2.0 3.0 0.00 0.15 0.00 85 1009.8
20260507051625 54 308 1.0 3.0 0.00 0.15 0.00 85 1009.7
20260507051521 54 354 1.0 3.0 0.00 0.15 0.00 85 1009.7
20260507051416 54 7 1.0 2.0 0.00 0.15 0.00 85 1009.6
20260507051328 54 45 1.0 3.0 0.00 0.15 0.00 85 1009.6
20260507051243 54 16 1.0 3.0 0.00 0.15 0.00 85 1009.5
20260507051119 54 49 3.0 4.0 0.00 0.15 0.00 85 1009.5
20260507051031 55 71 1.0 2.0 0.00 0.15 0.00 85 1009.4
20260507050926 54 99 1.0 2.0 0.00 0.15 0.00 85 1009.3
20260507050822 54 54 1.0 3.0 0.00 0.15 0.00 85 1009.4
20260507050717 55 71 2.0 3.0 0.00 0.15 0.00 85 1009.2
20260507050629 55 109 2.0 3.0 0.00 0.15 0.00 85 1009.3
20260507050525 55 135 1.0 2.0 0.00 0.15 0.00 85 1009.4
20260507050421 55 25 1.0 2.0 0.00 0.15 0.00 85 1009.4
20260507050336 55 70 0.0 2.0 0.00 0.15 0.00 84 1009.3
20260507050228 55 38 0.0 2.0 0.00 0.15 0.00 84 1009.5
20260507050123 55 44 0.0 2.0 0.00 0.15 0.00 84 1009.6
20260507050019 55 30 1.0 2.0 0.00 0.15 0.00 84 1009.5
20260507045931 55 53 1.0 2.0 0.00 0.15 0.00 84 1009.6
20260507045826 55 37 1.0 2.0 0.00 0.15 0.00 83 1009.6
20260507045722 55 0.0 1.0 0.00 0.15 0.00 83 1009.5
20260507045617 55 0.0 1.0 0.00 0.15 0.00 83 1009.7
20260507045529 55 118 0.0 1.0 0.00 0.15 0.00 83 1009.9
20260507045424 55 128 0.0 2.0 0.00 0.15 0.00 83 1009.8
20260507045400 55 62 2.0 3.0 0.00 0.15 0.00 83 1009.8
20260507045216 55 61 2.0 2.0 0.00 0.15 0.00 83 1009.7
20260507045128 55 40 2.0 3.0 0.00 0.15 0.00 83 1009.8
20260507045043 55 52 1.0 2.0 0.00 0.15 0.00 83 1010.0
20260507044919 55 335 0.0 2.0 0.00 0.15 0.00 83 1009.9
20260507044830 55 66 1.0 2.0 0.00 0.15 0.00 83 1010.1
20260507044806 55 48 1.0 2.0 0.00 0.15 0.00 83 1010.0
20260507044621 55 67 1.0 2.0 0.00 0.15 0.00 82 1010.1
20260507044517 55 97 2.0 2.0 0.00 0.15 0.00 82 1010.1
20260507044429 55 56 1.0 4.0 0.00 0.15 0.00 81 1010.1
20260507044324 55 57 2.0 4.0 0.00 0.15 0.00 82 1009.8
20260507044240 55 346 1.0 2.0 0.00 0.15 0.00 82 1009.9
20260507044115 55 343 2.0 4.0 0.00 0.15 0.00 83 1009.9
20260507044027 55 36 1.0 2.0 0.00 0.15 0.00 83 1010.0
20260507043943 55 0.0 2.0 0.00 0.15 0.00 83 1009.9
20260507043818 55 41 1.0 3.0 0.00 0.15 0.00 83 1009.6
20260507043730 55 16 0.0 2.0 0.00 0.15 0.00 83 1009.9
20260507043646 55 92 2.0 2.0 0.00 0.15 0.00 82 1009.9
20260507043521 56 45 1.0 4.0 0.00 0.15 0.00 82 1010.0
20260507043417 56 67 2.0 2.0 0.00 0.15 0.00 83 1010.0
20260507043328 56 319 1.0 2.0 0.00 0.15 0.00 83 1010.0
20260507043224 56 195 0.0 2.0 0.00 0.15 0.00 83 1009.9
20260507043120 56 26 1.0 2.0 0.00 0.15 0.00 82 1009.8
20260507043015 56 148 0.0 1.0 0.00 0.15 0.00 82 1009.7
20260507042927 55 94 0.0 2.0 0.00 0.15 0.00 82 1009.7
20260507042822 55 8 0.0 2.0 0.00 0.15 0.00 81 1009.7
20260507042718 56 54 2.0 4.0 0.00 0.15 0.00 82 1009.8
20260507042630 56 60 2.0 3.0 0.00 0.15 0.00 83 1009.8
20260507042525 56 47 1.0 2.0 0.00 0.15 0.00 83 1009.9
20260507042521 56 355 2.0 3.0 0.00 0.15 0.00 83 1009.9
20260507042316 56 44 3.0 6.0 0.00 0.15 0.00 83 1009.9
20260507042228 56 36 3.0 4.0 0.00 0.15 0.00 84 1009.8
20260507042123 56 354 1.0 4.0 0.00 0.15 0.00 85 1010.0
20260507042019 56 28 4.0 5.0 0.00 0.15 0.00 85 1009.7
20260507041951 56 343 2.0 3.0 0.00 0.15 0.00 86 1009.6
20260507041826 56 355 1.0 2.0 0.00 0.15 0.00 86 1009.7
20260507041742 56 310 1.0 4.0 0.00 0.15 0.00 87 1009.7
20260507041617 56 327 1.0 2.0 0.00 0.15 0.00 87 1009.8
20260507041529 56 7 2.0 3.0 0.00 0.15 0.00 87 1009.8
20260507041424 56 67 1.0 2.0 0.00 0.15 0.00 87 1010.0
20260507041320 56 39 1.0 2.0 0.00 0.15 0.00 87 1009.9
20260507041216 56 67 1.0 2.0 0.00 0.15 0.00 87 1010.0
20260507041147 56 35 1.0 2.0 0.00 0.15 0.00 87 1010.1
20260507041023 56 56 1.0 2.0 0.00 0.15 0.00 87 1010.1
20260507040919 56 0.0 2.0 0.00 0.15 0.00 87 1010.2
20260507040830 56 153 1.0 2.0 0.00 0.15 0.00 87 1010.1
20260507040726 56 0.0 2.0 0.00 0.15 0.00 87 1010.0
20260507040621 56 98 1.0 2.0 0.00 0.15 0.00 87 1009.9
20260507040537 56 0.0 2.0 0.00 0.15 0.00 87 1009.9
20260507040429 56 81 1.0 2.0 0.00 0.15 0.00 87 1010.0
20260507040324 56 117 1.0 2.0 0.00 0.15 0.00 86 1009.9
20260507040220 56 0.0 2.0 0.00 0.15 0.00 86 1009.9
20260507040115 56 136 0.0 2.0 0.00 0.15 0.00 86 1009.8
20260507040027 56 43 0.0 1.0 0.00 0.15 0.00 86 1009.8
20260507035943 56 28 2.0 4.0 0.00 0.15 0.15 86 1009.7
20260507035818 56 341 1.0 2.0 0.00 0.15 0.15 87 1009.8
20260507035730 56 22 1.0 2.0 0.00 0.15 0.15 87 1009.8
20260507035625 56 50 2.0 4.0 0.00 0.15 0.15 87 1010.1
20260507035521 56 48 3.0 4.0 0.00 0.15 0.15 88 1010.1
20260507035417 56 46 1.0 3.0 0.00 0.15 0.15 88 1010.0
20260507035328 57 4 0.0 2.0 0.00 0.15 0.15 88 1009.8
20260507035224 57 47 1.0 2.0 0.00 0.15 0.15 88 1009.9
20260507035139 56 0.0 2.0 0.00 0.15 0.15 88 1009.9
20260507035015 57 34 1.0 2.0 0.00 0.15 0.15 88 1009.8
20260507034927 57 185 0.0 2.0 0.00 0.15 0.15 88 1010.0
20260507034822 57 146 1.0 2.0 0.00 0.15 0.15 88 1009.8
20260507034718 56 52 1.0 2.0 0.00 0.15 0.15 88 1009.8
20260507034630 57 79 0.0 3.0 0.00 0.15 0.15 88 1009.8
20260507034525 57 69 1.0 3.0 0.00 0.15 0.15 89 1009.8
20260507034421 57 66 1.0 3.0 0.00 0.15 0.15 89 1009.7
20260507034316 57 65 2.0 3.0 0.00 0.15 0.15 90 1009.7
20260507034228 57 38 1.0 3.0 0.00 0.15 0.15 89 1009.6
20260507034124 57 27 2.0 3.0 0.00 0.15 0.15 90 1009.9
20260507034039 57 31 1.0 3.0 0.00 0.15 0.15 90 1009.6
20260507033931 57 68 2.0 3.0 0.00 0.15 0.15 90 1009.7
20260507033826 57 14 2.0 2.0 0.00 0.15 0.15 90 1009.6
20260507033722 57 112 0.0 2.0 0.00 0.15 0.15 90 1009.7
20260507033617 57 89 1.0 2.0 0.00 0.15 0.15 90 1009.7
20260507033529 57 34 1.0 3.0 0.00 0.15 0.15 90 1009.9
20260507033425 57 57 1.0 3.0 0.00 0.15 0.15 90 1009.7
20260507033320 57 81 1.0 2.0 0.00 0.15 0.15 90 1009.7
20260507033216 57 146 1.0 2.0 0.00 0.15 0.15 90 1009.9
20260507033128 57 0.0 2.0 0.00 0.15 0.15 90 1009.8
20260507033023 57 61 1.0 2.0 0.00 0.15 0.15 90 1009.8
20260507032919 57 344 1.0 2.0 0.00 0.15 0.15 90 1009.8
20260507032830 57 58 0.0 2.0 0.00 0.15 0.15 90 1009.9
20260507032746 57 344 0.0 2.0 0.00 0.15 0.15 90 1009.7
20260507032621 57 84 1.0 2.0 0.00 0.15 0.15 90 1009.7
20260507032517 57 0.0 2.0 0.00 0.15 0.15 90 1009.7
20260507032429 57 41 1.0 2.0 0.00 0.15 0.15 90 1009.8
20260507032344 57 8 1.0 3.0 0.00 0.15 0.15 90 1009.8
20260507032240 57 152 0.0 2.0 0.00 0.15 0.15 89 1009.6
20260507032135 57 22 1.0 2.0 0.00 0.15 0.15 89 1009.5
20260507032027 57 50 1.0 2.0 0.00 0.15 0.15 89 1009.5
20260507031922 57 53 1.0 3.0 0.00 0.15 0.15 89 1009.5
20260507031838 57 99 1.0 3.0 0.00 0.15 0.15 90 1009.4
20260507031730 57 174 1.0 2.0 0.00 0.15 0.15 89 1009.3
20260507031626 57 35 1.0 3.0 0.00 0.15 0.15 89 1009.4
20260507031521 57 44 2.0 3.0 0.00 0.15 0.15 89 1009.3
20260507031416 58 11 1.0 2.0 0.00 0.15 0.15 89 1009.4
20260507031328 58 53 1.0 2.0 0.00 0.15 0.15 89 1009.3
20260507031224 58 26 0.0 2.0 0.00 0.15 0.15 89 1009.3
20260507031119 58 0.0 2.0 0.00 0.15 0.15 89 1009.4
20260507031051 58 48 2.0 4.0 0.00 0.15 0.15 89 1009.3
20260507030927 58 36 1.0 3.0 0.00 0.15 0.15 89 1009.3
20260507030822 58 15 1.0 3.0 0.00 0.15 0.15 89 1009.5
20260507030718 58 23 3.0 5.0 0.00 0.15 0.15 89 1009.3
20260507030629 58 57 1.0 3.0 0.00 0.15 0.15 90 1009.5
20260507030525 58 54 1.0 2.0 0.00 0.15 0.15 90 1009.5
20260507030421 58 31 1.0 2.0 0.00 0.15 0.15 90 1009.6
20260507030316 58 334 2.0 3.0 0.00 0.15 0.15 90 1009.6
20260507030228 58 318 2.0 3.0 0.00 0.15 0.15 90 1009.6
20260507030123 58 10 1.0 2.0 0.00 0.15 0.15 90 1009.4
20260507030019 58 186 1.0 2.0 0.00 0.15 0.15 90 1009.3
20260507025951 58 344 1.0 2.0 0.00 0.15 0.15 90 1009.4
20260507025826 58 200 2.0 3.0 0.00 0.15 0.15 90 1009.4
20260507025742 58 5 2.0 4.0 0.00 0.15 0.15 90 1009.3
20260507025638 58 29 2.0 4.0 0.00 0.15 0.15 90 1009.4
20260507025529 58 86 2.0 3.0 0.00 0.15 0.15 90 1009.3
20260507025425 58 125 2.0 6.0 0.00 0.15 0.15 91 1009.3
20260507025401 58 0.0 1.0 0.00 0.15 0.15 91 1009.4
20260507025216 58 153 1.0 2.0 0.00 0.15 0.15 91 1009.3
20260507025128 58 185 0.0 1.0 0.00 0.15 0.15 91 1009.3
20260507025043 58 311 0.0 2.0 0.00 0.15 0.15 91 1009.3
20260507024919 58 138 0.0 2.0 0.00 0.15 0.15 91 1009.3
20260507024830 59 108 1.0 2.0 0.00 0.15 0.15 91 1009.3
20260507024726 58 105 1.0 2.0 0.00 0.15 0.15 91 1009.5
20260507024622 59 50 2.0 4.0 0.00 0.15 0.15 91 1009.5
20260507024518 59 9 1.0 2.0 0.00 0.15 0.15 91 1009.3
20260507024509 59 64 0.0 2.0 0.00 0.15 0.15 91 1009.4
20260507024325 59 156 1.0 2.0 0.00 0.15 0.15 91 1009.4
20260507024220 59 69 1.0 2.0 0.00 0.15 0.15 91 1009.6
20260507024136 59 353 1.0 2.0 0.00 0.15 0.15 91 1009.6
20260507024028 59 340 1.0 2.0 0.00 0.15 0.15 91 1009.6
20260507023923 59 269 2.0 3.0 0.00 0.15 0.15 91 1009.4
20260507023839 59 257 2.0 3.0 0.00 0.15 0.15 91 1009.4
20260507023730 59 53 1.0 2.0 0.00 0.15 0.15 91 1009.5
20260507023646 59 45 0.0 2.0 0.00 0.15 0.15 91 1009.4
20260507023522 59 0.0 1.0 0.00 0.15 0.15 91 1009.5
20260507023418 59 359 0.0 2.0 0.00 0.15 0.15 91 1009.5
20260507023329 59 157 0.0 2.0 0.01 0.15 0.15 91 1009.3
20260507023245 59 0.0 1.0 0.02 0.15 0.15 91 1009.3
20260507023120 59 352 1.0 2.0 0.02 0.15 0.15 91 1009.4
20260507023016 59 67 1.0 2.0 0.03 0.15 0.15 91 1009.5
20260507022928 59 16 0.0 2.0 0.03 0.15 0.15 91 1009.4
20260507022824 59 359 1.0 2.0 0.03 0.15 0.15 91 1009.5
20260507022719 59 55 1.0 2.0 0.03 0.15 0.15 91 1009.5
20260507022630 60 322 1.0 4.0 0.03 0.15 0.15 91 1009.6
20260507022526 60 23 1.0 2.0 0.03 0.15 0.15 91 1009.4
20260507022422 60 339 1.0 2.0 0.03 0.15 0.15 90 1009.4
20260507022357 60 288 0.0 3.0 0.03 0.15 0.15 90 1009.6
20260507022229 60 23 3.0 5.0 0.03 0.15 0.15 90 1009.7
20260507022124 60 328 0.0 2.0 0.03 0.15 0.15 91 1009.7
20260507022020 60 15 2.0 3.0 0.03 0.15 0.15 91 1009.6
20260507021916 60 288 1.0 3.0 0.03 0.15 0.15 91 1009.7
20260507021827 60 13 2.0 3.0 0.03 0.15 0.15 91 1009.8
20260507021723 60 357 3.0 5.0 0.03 0.15 0.15 91 1009.6
20260507021639 60 310 1.0 5.0 0.03 0.15 0.15 91 1009.7
20260507021530 60 77 2.0 3.0 0.03 0.15 0.15 91 1009.6
20260507021426 60 15 2.0 4.0 0.03 0.15 0.15 91 1009.5
20260507021322 60 354 2.0 4.0 0.03 0.15 0.15 92 1009.5
20260507021237 60 10 2.0 3.0 0.03 0.15 0.15 92 1009.4
20260507021129 60 35 2.0 3.0 0.03 0.15 0.15 92 1009.4
20260507021024 61 6 2.0 5.0 0.03 0.15 0.15 93 1009.5
20260507020920 61 15 2.0 4.0 0.03 0.15 0.15 93 1009.6
20260507020816 61 322 1.0 2.0 0.03 0.15 0.15 93 1009.5
20260507020727 61 9 2.0 3.0 0.03 0.15 0.15 94 1009.5
20260507020623 61 7 3.0 5.0 0.03 0.15 0.15 94 1009.5
20260507020519 62 336 4.0 7.0 0.03 0.15 0.15 94 1009.5
20260507020451 62 350 2.0 7.0 0.03 0.15 0.15 95 1009.6
20260507020326 62 300 1.0 3.0 0.03 0.15 0.15 95 1009.6
20260507020222 62 53 1.0 2.0 0.03 0.15 0.15 95 1009.3
20260507020117 63 319 1.0 2.0 0.03 0.15 0.15 94 1009.4
20260507020029 63 0.0 2.0 0.03 0.15 0.15 94 1009.3
20260507015925 63 359 1.0 2.0 0.03 0.15 0.15 94 1009.3
20260507015820 63 359 1.0 2.0 0.03 0.15 0.15 94 1009.4
20260507015716 63 341 1.0 2.0 0.03 0.15 0.15 94 1009.2
20260507015628 63 31 0.0 1.0 0.03 0.15 0.15 94 1009.2
20260507015523 63 0.0 1.0 0.03 0.15 0.15 94 1009.3
20260507015419 63 84 1.0 2.0 0.03 0.15 0.15 94 1009.1
20260507015331 63 0.0 1.0 0.03 0.15 0.15 94 1009.0
20260507015226 63 4 1.0 2.0 0.03 0.15 0.15 94 1008.9
20260507015142 63 347 0.0 1.0 0.03 0.15 0.15 94 1009.1
20260507015017 63 0.0 1.0 0.03 0.15 0.15 94 1008.8
20260507014929 63 0.0 2.0 0.03 0.15 0.15 94 1008.9
20260507014825 63 143 0.0 1.0 0.03 0.15 0.15 93 1008.7
20260507014740 63 308 0.0 1.0 0.03 0.15 0.15 93 1008.7
20260507014616 63 155 0.0 2.0 0.03 0.15 0.15 93 1008.7
20260507014527 63 168 1.0 2.0 0.03 0.15 0.15 93 1008.6
20260507014423 63 267 1.0 2.0 0.03 0.15 0.15 93 1008.9
20260507014319 63 0.0 1.0 0.03 0.15 0.15 93 1008.8
20260507014230 63 218 1.0 3.0 0.03 0.15 0.15 93 1008.9
20260507014126 63 88 1.0 2.0 0.03 0.15 0.15 93 1009.0
20260507014022 63 178 2.0 4.0 0.03 0.15 0.15 93 1009.0
20260507013917 63 199 1.0 2.0 0.03 0.15 0.15 93 1009.0
20260507013829 63 184 1.0 2.0 0.03 0.15 0.15 92 1009.0
20260507013724 64 166 1.0 2.0 0.03 0.15 0.15 92 1009.1
20260507013620 64 185 2.0 2.0 0.03 0.15 0.15 92 1009.1
20260507013516 64 201 2.0 4.0 0.03 0.15 0.15 92 1009.0
20260507013428 64 158 3.0 4.0 0.03 0.15 0.15 92 1009.1
20260507013343 64 52 2.0 3.0 0.02 0.15 0.15 91 1009.3
20260507013219 64 219 2.0 3.0 0.01 0.13 0.13 91 1009.2
20260507013130 64 191 2.0 4.0 0.01 0.13 0.13 91 1009.2
20260507013026 64 355 2.0 4.0 0.00 0.13 0.13 91 1009.4
20260507012941 64 15 1.0 2.0 0.00 0.13 0.13 91 1009.2
20260507012817 64 319 2.0 3.0 0.00 0.13 0.13 90 1009.1
20260507012729 64 200 2.0 4.0 0.00 0.12 0.12 90 1009.1
20260507012624 64 235 0.0 2.0 0.00 0.12 0.12 90 1009.2
20260507012540 65 169 2.0 2.0 0.00 0.12 0.12 90 1009.1
20260507012415 65 277 2.0 4.0 0.00 0.12 0.12 89 1008.9
20260507012347 65 333 1.0 3.0 0.00 0.12 0.12 89 1008.9
20260507012223 65 0.0 1.0 0.00 0.12 0.12 89 1008.8
20260507012138 65 67 1.0 2.0 0.00 0.12 0.12 88 1008.9
20260507012030 65 330 1.0 4.0 0.00 0.12 0.12 88 1008.8
20260507011925 65 323 0.0 2.0 0.00 0.12 0.12 88 1008.8
20260507011841 65 287 1.0 3.0 0.00 0.12 0.12 88 1008.7
20260507011717 65 328 2.0 3.0 0.00 0.12 0.12 88 1008.9
20260507011628 65 278 2.0 2.0 0.00 0.12 0.12 88 1008.7
20260507011524 65 336 2.0 5.0 0.00 0.12 0.12 88 1008.8
20260507011420 65 338 3.0 5.0 0.00 0.12 0.12 88 1008.9
20260507011315 65 323 2.0 5.0 0.00 0.12 0.12 88 1008.8
20260507011227 65 323 2.0 3.0 0.00 0.12 0.12 88 1008.7
20260507011123 65 334 2.0 6.0 0.00 0.12 0.12 88 1008.7
20260507011018 65 322 3.0 6.0 0.00 0.12 0.12 88 1008.6
20260507011010 65 298 1.0 2.0 0.00 0.12 0.12 88 1008.5
20260507010825 65 330 0.0 2.0 0.00 0.12 0.12 88 1008.7
20260507010721 65 328 2.0 3.0 0.00 0.12 0.12 88 1008.5
20260507010656 65 340 1.0 2.0 0.00 0.12 0.12 88 1008.5
20260507010528 65 311 1.0 2.0 0.00 0.12 0.12 89 1008.6
20260507010424 65 324 1.0 2.0 0.00 0.12 0.12 89 1008.5
20260507010319 65 0.0 0.0 0.00 0.12 0.12 89 1008.4
20260507010307 65 0.0 0.0 0.00 0.12 0.12 89 1008.3
20260507010022 65 0.0 0.0 0.00 0.12 0.12 89 1008.3
20260507005918 65 0.0 0.0 0.00 0.12 0.12 89 1008.4
20260507005830 65 0.0 0.0 0.00 0.12 0.12 89 1008.3
20260507005725 65 0.0 0.0 0.00 0.12 0.12 88 1008.2
20260507005621 65 0.0 0.0 0.00 0.12 0.12 88 1008.4
20260507005516 65 0.0 1.0 0.00 0.12 0.12 88 1008.3
20260507005428 65 0.0 1.0 0.00 0.12 0.12 88 1008.2
20260507005344 65 0.0 1.0 0.00 0.12 0.12 88 1008.4
20260507005219 65 0.0 0.0 0.00 0.12 0.12 88 1008.2
20260507005115 65 0.0 1.0 0.00 0.12 0.12 88 1008.3
20260507005027 65 0.0 0.0 0.00 0.12 0.12 88 1008.3
20260507004922 65 0.0 1.0 0.00 0.12 0.12 88 1008.2
20260507004818 65 148 0.0 2.0 0.00 0.12 0.12 88 1008.1
20260507004730 65 153 1.0 2.0 0.00 0.12 0.12 88 1008.1
20260507004625 65 152 1.0 2.0 0.00 0.12 0.12 88 1008.2
20260507004521 65 99 0.0 1.0 0.00 0.12 0.12 88 1008.1
20260507004417 65 138 1.0 2.0 0.00 0.12 0.12 88 1008.1
20260507004328 65 135 0.0 1.0 0.00 0.12 0.12 88 1008.3
20260507004224 65 138 0.0 1.0 0.00 0.12 0.12 88 1008.2
20260507004120 65 0.0 1.0 0.00 0.12 0.12 88 1008.1
20260507004015 65 121 0.0 2.0 0.00 0.12 0.12 88 1008.3
20260507003927 65 143 1.0 1.0 0.00 0.12 0.12 88 1008.1
20260507003842 65 156 1.0 2.0 0.00 0.12 0.12 88 1008.2
20260507003718 65 129 0.0 1.0 0.00 0.12 0.12 88 1008.2
20260507003630 65 110 0.0 1.0 0.00 0.12 0.12 88 1008.1
20260507003545 65 122 1.0 2.0 0.00 0.12 0.12 88 1008.1
20260507003421 65 127 1.0 1.0 0.00 0.12 0.12 88 1008.2
20260507003316 65 0.0 1.0 0.00 0.12 0.12 88 1008.2
20260507003228 65 0.0 1.0 0.00 0.12 0.12 88 1008.2
20260507003123 65 0.0 1.0 0.00 0.12 0.12 88 1008.2
20260507003019 65 0.0 1.0 0.00 0.12 0.12 88 1008.2
20260507002931 65 0.0 1.0 0.00 0.12 0.12 88 1008.1
20260507002826 65 0.0 1.0 0.00 0.12 0.12 87 1008.2
20260507002722 65 165 1.0 1.0 0.00 0.12 0.12 87 1008.2
20260507002618 65 145 0.0 1.0 0.00 0.12 0.12 87 1008.1
20260507002529 65 144 0.0 1.0 0.00 0.12 0.12 87 1008.2
20260507002425 65 0.0 1.0 0.00 0.12 0.12 87 1008.2
20260507002320 65 0.0 1.0 0.00 0.12 0.12 87 1008.1
20260507002216 65 123 1.0 2.0 0.00 0.12 0.12 87 1008.3
20260507002128 65 120 0.0 1.0 0.00 0.12 0.12 87 1008.2
20260507002024 65 159 0.0 1.0 0.00 0.12 0.12 87 1008.2
20260507001919 65 0.0 0.0 0.00 0.12 0.12 87 1008.0
20260507001815 65 135 0.0 1.0 0.00 0.12 0.12 87 1008.2
20260507001727 65 102 1.0 1.0 0.00 0.12 0.12 87 1008.2
20260507001622 65 0.0 1.0 0.00 0.12 0.12 87 1008.2
20260507001518 66 126 0.0 1.0 0.00 0.12 0.12 87 1008.0
20260507001430 66 122 0.0 2.0 0.00 0.12 0.12 86 1008.1
20260507001325 66 156 1.0 2.0 0.00 0.12 0.12 86 1008.1
20260507001221 66 128 1.0 2.0 0.00 0.12 0.12 86 1008.2
20260507001137 66 143 0.0 2.0 0.00 0.12 0.12 86 1008.2
20260507001028 66 0.0 0.0 0.00 0.12 0.12 86 1008.1
20260507000924 66 162 0.0 1.0 0.00 0.12 0.12 86 1008.0
20260507000859 66 0.0 1.0 0.00 0.12 0.12 86 1008.2
20260507000735 66 0.0 0.0 0.00 0.12 0.12 86 1008.1
20260507000647 66 0.0 0.0 0.00 0.12 0.12 86 1008.3
20260507000522 66 0.0 0.0 0.00 0.12 0.12 86 1008.4
20260507000420 66 0.0 1.0 0.00 0.12 0.12 86 1008.3
20260507000330 66 188 1.0 2.0 0.00 0.12 0.12 86 1008.3
20260507000226 66 179 1.0 2.0 0.00 0.12 0.12 86 1008.1
20260507000121 66 0.0 0.0 0.00 0.12 0.12 86 1008.1
20260507000037 66 112 0.0 2.0 0.00 0.12 0.12 86 1008.1
20260506235928 66 186 1.0 2.0 0.00 0.12 0.12 85 1008.2
20260506235824 66 179 1.0 2.0 0.00 0.12 0.12 86 1008.2
20260506235720 66 0.0 1.0 0.00 0.12 0.12 86 1008.1
20260506235615 66 161 1.0 1.0 0.00 0.12 0.12 86 1008.2
20260506235527 66 0.0 1.0 0.00 0.12 0.12 86 1008.1
20260506235423 66 136 0.0 1.0 0.00 0.12 0.12 85 1008.2
20260506235318 66 0.0 1.0 0.00 0.12 0.12 85 1008.1
20260506235250 66 189 1.0 1.0 0.00 0.12 0.12 85 1008.1
20260506235125 66 199 0.0 3.0 0.00 0.12 0.12 85 1008.1
20260506235021 66 195 1.0 3.0 0.00 0.12 0.12 85 1008.2
20260506234917 66 156 1.0 2.0 0.00 0.12 0.12 85 1008.3
20260506234828 66 188 1.0 2.0 0.00 0.12 0.12 85 1008.0
20260506234724 66 188 1.0 2.0 0.00 0.12 0.12 85 1008.1
20260506234619 66 196 1.0 2.0 0.00 0.12 0.12 85 1008.1
20260506234515 66 200 1.0 2.0 0.00 0.12 0.12 85 1007.9
20260506234427 66 194 1.0 2.0 0.00 0.12 0.12 85 1008.0
20260506234323 66 196 1.0 2.0 0.00 0.12 0.12 85 1007.9
20260506234238 66 0.0 1.0 0.00 0.12 0.12 85 1007.9
20260506234130 66 153 1.0 2.0 0.00 0.12 0.12 84 1007.8
20260506234026 66 196 1.0 2.0 0.00 0.12 0.12 84 1007.7
20260506233921 66 181 3.0 4.0 0.00 0.12 0.12 84 1007.8
20260506233817 66 182 2.0 3.0 0.00 0.12 0.12 84 1008.0
20260506233728 66 168 2.0 3.0 0.00 0.12 0.12 84 1008.0
20260506233624 66 162 0.0 2.0 0.00 0.12 0.12 84 1008.1
20260506233540 66 197 0.0 4.0 0.00 0.12 0.12 84 1007.9
20260506233415 66 185 3.0 5.0 0.00 0.12 0.12 84 1007.9
20260506233327 66 174 1.0 2.0 0.00 0.12 0.12 84 1008.3
20260506233223 66 226 2.0 3.0 0.00 0.12 0.12 84 1008.1
20260506233118 66 177 2.0 3.0 0.00 0.12 0.12 84 1008.2
20260506233030 66 204 1.0 2.0 0.00 0.12 0.12 84 1008.0
20260506232926 66 206 2.0 2.0 0.00 0.12 0.12 84 1008.0
20260506232821 66 188 0.0 2.0 0.00 0.12 0.12 84 1008.1
20260506232717 66 207 1.0 2.0 0.00 0.12 0.12 84 1008.0
20260506232629 66 194 1.0 3.0 0.00 0.12 0.12 84 1007.9
20260506232544 66 181 1.0 3.0 0.00 0.12 0.12 84 1007.8
20260506232420 66 183 0.0 2.0 0.00 0.12 0.12 84 1007.8
20260506232315 66 195 1.0 2.0 0.00 0.12 0.12 84 1008.1
20260506232227 66 191 2.0 3.0 0.00 0.12 0.12 84 1007.9
20260506232123 66 195 1.0 3.0 0.00 0.12 0.12 84 1008.0
20260506232018 66 195 2.0 2.0 0.00 0.12 0.12 84 1008.0
20260506231930 66 185 1.0 2.0 0.00 0.12 0.12 84 1007.8
20260506231846 66 207 1.0 2.0 0.00 0.12 0.12 84 1008.1
20260506231721 66 190 1.0 2.0 0.00 0.12 0.12 83 1007.8
20260506231617 66 0.0 2.0 0.00 0.12 0.12 84 1007.9
20260506231529 66 217 0.0 2.0 0.00 0.12 0.12 83 1008.0
20260506231444 66 211 4.0 5.0 0.00 0.12 0.12 83 1007.8
20260506231320 66 210 1.0 4.0 0.00 0.12 0.12 83 1008.0
20260506231235 66 210 1.0 3.0 0.00 0.12 0.12 83 1007.9
20260506231147 66 225 2.0 3.0 0.00 0.12 0.12 83 1008.0
20260506231023 66 225 1.0 3.0 0.00 0.12 0.12 84 1007.8
20260506230918 66 216 1.0 3.0 0.00 0.12 0.12 84 1008.0
20260506230830 66 198 1.0 2.0 0.00 0.12 0.12 84 1008.0
20260506230745 66 156 1.0 2.0 0.00 0.12 0.12 83 1007.8
20260506230621 66 183 2.0 4.0 0.00 0.12 0.12 83 1007.9
20260506230517 66 183 2.0 4.0 0.00 0.12 0.12 84 1008.0
20260506230428 66 176 2.0 4.0 0.00 0.12 0.12 84 1007.9
20260506230324 66 186 2.0 3.0 0.00 0.12 0.12 84 1007.9
20260506230219 66 188 2.0 4.0 0.00 0.12 0.12 84 1007.8
20260506230115 66 187 3.0 6.0 0.00 0.12 0.12 83 1007.8
20260506230027 66 196 3.0 4.0 0.00 0.12 0.12 84 1007.9
20260506225922 66 192 5.0 7.0 0.00 0.12 0.12 84 1008.0
20260506225838 66 185 1.0 2.0 0.00 0.12 0.12 84 1007.7
20260506225730 66 240 2.0 3.0 0.00 0.12 0.12 84 1008.0
20260506225626 66 226 2.0 3.0 0.00 0.12 0.12 84 1008.0
20260506225521 66 214 3.0 3.0 0.00 0.12 0.12 84 1007.9
20260506225416 66 189 2.0 3.0 0.00 0.12 0.12 84 1008.1
20260506225328 66 176 1.0 2.0 0.00 0.12 0.12 84 1007.7
20260506225224 66 104 1.0 3.0 0.00 0.12 0.12 84 1007.8
20260506225119 66 210 1.0 2.0 0.00 0.12 0.12 84 1008.0
20260506225015 66 0.0 2.0 0.00 0.12 0.12 84 1007.9
20260506224927 66 227 2.0 4.0 0.00 0.12 0.12 84 1007.8
20260506224822 66 192 4.0 5.0 0.00 0.12 0.12 84 1007.8
20260506224718 66 195 3.0 3.0 0.00 0.12 0.12 84 1007.9
20260506224629 66 182 1.0 4.0 0.00 0.12 0.12 84 1007.8
20260506224545 66 202 2.0 4.0 0.00 0.12 0.12 84 1007.8
20260506224421 66 193 3.0 3.0 0.00 0.12 0.12 84 1008.0
20260506224316 66 203 2.0 2.0 0.00 0.12 0.12 84 1007.9
20260506224228 66 221 2.0 4.0 0.00 0.12 0.12 84 1007.9
20260506224124 66 196 3.0 5.0 0.00 0.12 0.12 84 1007.7
20260506224019 66 210 1.0 2.0 0.00 0.12 0.12 84 1007.8
20260506223915 66 212 3.0 6.0 0.00 0.12 0.12 84 1007.7
20260506223827 66 195 3.0 6.0 0.00 0.12 0.12 84 1007.7
20260506223722 66 186 2.0 4.0 0.00 0.12 0.12 84 1007.7
20260506223618 66 194 2.0 2.0 0.00 0.12 0.12 84 1007.9
20260506223550 66 195 3.0 6.0 0.00 0.12 0.12 84 1007.5
20260506223425 66 198 4.0 7.0 0.00 0.12 0.12 84 1007.7
20260506223341 66 189 5.0 8.0 0.00 0.12 0.12 84 1007.5
20260506223217 66 209 3.0 4.0 0.00 0.12 0.12 84 1007.7
20260506223128 66 239 3.0 4.0 0.00 0.12 0.12 84 1007.7
20260506223044 66 211 1.0 4.0 0.00 0.12 0.12 84 1007.6
20260506222919 66 238 3.0 7.0 0.00 0.12 0.12 84 1007.9
20260506222815 66 195 7.0 8.0 0.00 0.12 0.12 84 1007.8
20260506222727 66 185 4.0 7.0 0.00 0.12 0.12 84 1007.8
20260506222622 66 222 2.0 4.0 0.00 0.12 0.12 84 1007.8
20260506222518 66 201 3.0 4.0 0.00 0.12 0.12 84 1007.7
20260506222430 66 203 2.0 3.0 0.00 0.12 0.12 84 1007.8
20260506222325 66 298 2.0 3.0 0.00 0.12 0.12 84 1007.7
20260506222221 66 193 3.0 6.0 0.00 0.12 0.12 84 1007.8
20260506222136 66 203 5.0 6.0 0.00 0.12 0.12 84 1007.7
20260506222048 66 190 2.0 3.0 0.00 0.12 0.12 84 1007.9
20260506221944 66 199 3.0 6.0 0.00 0.12 0.12 84 1007.7
20260506221819 66 202 4.0 6.0 0.00 0.12 0.12 84 1007.6
20260506221715 66 228 2.0 5.0 0.00 0.12 0.12 84 1007.8
20260506221627 66 187 2.0 5.0 0.00 0.12 0.12 84 1007.7
20260506221542 66 213 3.0 4.0 0.00 0.12 0.12 84 1007.7
20260506221418 66 238 2.0 2.0 0.00 0.12 0.12 84 1007.8
20260506221329 66 257 2.0 4.0 0.00 0.12 0.12 84 1007.7
20260506221225 66 262 1.0 3.0 0.00 0.12 0.12 84 1007.8
20260506221121 66 204 2.0 3.0 0.00 0.12 0.12 84 1007.8
20260506221036 66 203 2.0 4.0 0.00 0.12 0.12 84 1007.7
20260506220928 66 196 3.0 5.0 0.00 0.12 0.12 84 1007.8
20260506220823 66 201 3.0 4.0 0.00 0.12 0.12 84 1007.8
20260506220739 66 226 3.0 5.0 0.00 0.12 0.12 83 1007.6
20260506220631 66 181 3.0 4.0 0.00 0.12 0.12 84 1007.5
20260506220526 66 215 3.0 6.0 0.00 0.12 0.12 84 1007.6
20260506220422 66 197 4.0 6.0 0.00 0.12 0.12 84 1007.5
20260506220318 66 187 6.0 7.0 0.00 0.12 0.12 84 1007.7
20260506220229 66 184 4.0 6.0 0.00 0.12 0.12 84 1007.5
20260506220125 66 198 3.0 4.0 0.00 0.12 0.12 84 1007.6
20260506220021 66 202 4.0 4.0 0.00 0.12 0.12 84 1007.7
20260506215917 66 202 2.0 3.0 0.00 0.12 0.12 84 1007.6
20260506215828 66 200 2.0 4.0 0.00 0.12 0.12 84 1007.8
20260506215724 66 224 4.0 6.0 0.00 0.12 0.12 84 1007.7
20260506215620 66 248 2.0 5.0 0.00 0.12 0.12 84 1007.6
20260506215535 66 201 1.0 3.0 0.00 0.12 0.12 85 1007.7
20260506215427 66 213 2.0 5.0 0.00 0.12 0.12 85 1007.6
20260506215322 66 196 3.0 4.0 0.00 0.12 0.12 85 1007.5
20260506215218 66 188 1.0 2.0 0.00 0.12 0.12 85 1007.6
20260506215130 66 203 2.0 3.0 0.00 0.12 0.12 85 1007.6
20260506215025 66 194 2.0 3.0 0.00 0.12 0.12 85 1007.6
20260506214921 66 199 4.0 6.0 0.00 0.12 0.12 85 1007.5
20260506214916 66 192 3.0 4.0 0.00 0.12 0.12 85 1007.7
20260506214728 66 232 2.0 5.0 0.00 0.12 0.12 85 1007.7
20260506214624 66 216 3.0 6.0 0.00 0.12 0.12 85 1007.6
20260506214539 66 225 1.0 3.0 0.00 0.12 0.12 85 1007.8
20260506214415 66 215 2.0 4.0 0.00 0.12 0.12 85 1007.6
20260506214327 66 218 1.0 3.0 0.00 0.12 0.12 85 1007.6
20260506214222 66 203 2.0 4.0 0.00 0.12 0.12 85 1007.6
20260506214118 66 191 4.0 6.0 0.00 0.12 0.12 85 1007.7
20260506214030 65 198 3.0 4.0 0.00 0.12 0.12 85 1007.7
20260506213925 66 191 2.0 4.0 0.00 0.12 0.12 85 1007.7
20260506213821 66 203 2.0 3.0 0.00 0.12 0.12 85 1007.8
20260506213737 66 191 1.0 4.0 0.00 0.12 0.12 85 1007.8
20260506213628 66 193 4.0 6.0 0.00 0.12 0.12 85 1007.6
20260506213544 66 201 2.0 3.0 0.00 0.12 0.12 85 1007.8
20260506213439 66 218 1.0 3.0 0.00 0.12 0.12 85 1007.5
20260506213351 66 193 2.0 3.0 0.00 0.12 0.12 85 1007.7
20260506213226 65 208 1.0 4.0 0.00 0.12 0.12 85 1007.5
20260506213122 65 214 3.0 6.0 0.00 0.12 0.12 85 1007.6
20260506213018 65 192 4.0 5.0 0.00 0.12 0.12 85 1007.6
20260506212929 65 192 3.0 7.0 0.00 0.12 0.12 85 1007.4
20260506212825 65 205 1.0 4.0 0.00 0.12 0.12 85 1007.4
20260506212721 65 154 1.0 4.0 0.00 0.12 0.12 85 1007.2
20260506212616 65 243 3.0 6.0 0.00 0.12 0.12 85 1007.4
20260506212528 65 193 4.0 7.0 0.00 0.12 0.12 85 1007.5
20260506212424 65 218 2.0 5.0 0.00 0.12 0.12 85 1007.4
20260506212319 65 204 3.0 5.0 0.00 0.12 0.12 85 1007.4
20260506212231 65 211 3.0 4.0 0.00 0.12 0.12 85 1007.4
20260506212127 65 201 3.0 4.0 0.00 0.12 0.12 85 1007.3
20260506212022 65 190 3.0 6.0 0.00 0.12 0.12 85 1007.4
20260506211918 65 202 3.0 6.0 0.00 0.12 0.12 85 1007.5
20260506211829 65 192 3.0 5.0 0.00 0.12 0.12 86 1007.4
20260506211725 65 217 2.0 4.0 0.00 0.12 0.12 86 1007.4
20260506211620 65 222 2.0 4.0 0.00 0.12 0.12 85 1007.3
20260506211516 65 211 4.0 6.0 0.00 0.12 0.12 85 1007.4
20260506211428 65 203 4.0 6.0 0.00 0.12 0.12 86 1007.4
20260506211403 66 179 1.0 3.0 0.00 0.12 0.12 86 1007.5
20260506211219 65 208 3.0 4.0 0.00 0.12 0.12 86 1007.4
20260506211130 65 195 3.0 5.0 0.00 0.12 0.12 85 1007.3
20260506211026 65 198 3.0 5.0 0.00 0.12 0.12 85 1007.3
20260506210922 66 201 2.0 4.0 0.00 0.12 0.12 85 1007.4
20260506210817 66 200 3.0 4.0 0.00 0.12 0.12 85 1007.4
20260506210729 65 220 3.0 5.0 0.00 0.12 0.12 85 1007.3
20260506210625 66 223 3.0 5.0 0.00 0.12 0.12 85 1007.3
20260506210520 66 201 5.0 7.0 0.00 0.12 0.12 85 1007.1
20260506210416 66 196 5.0 7.0 0.00 0.12 0.12 85 1007.2
20260506210328 66 187 5.0 9.0 0.00 0.12 0.12 85 1007.2
20260506210223 66 198 6.0 10.0 0.00 0.12 0.12 85 1007.1
20260506210119 66 166 2.0 3.0 0.00 0.12 0.12 85 1007.3
20260506210030 66 241 1.0 2.0 0.00 0.12 0.12 85 1007.4
20260506205946 66 203 2.0 4.0 0.00 0.12 0.12 85 1007.2
20260506205822 66 178 2.0 4.0 0.00 0.12 0.12 85 1007.3
20260506205717 66 197 3.0 4.0 0.00 0.12 0.12 85 1007.2
20260506205629 66 202 2.0 4.0 0.00 0.12 0.12 85 1007.4
20260506205525 66 205 2.0 7.0 0.00 0.12 0.12 85 1007.2
20260506205420 66 192 5.0 8.0 0.00 0.12 0.12 85 1007.1
20260506205316 66 199 4.0 5.0 0.00 0.12 0.12 86 1007.2
20260506205227 66 234 2.0 5.0 0.00 0.12 0.12 86 1007.2
20260506205123 65 194 5.0 6.0 0.00 0.12 0.12 86 1007.1
20260506205019 65 201 4.0 7.0 0.00 0.12 0.12 86 1007.0
20260506204930 65 210 5.0 8.0 0.00 0.12 0.12 86 1007.0
20260506204826 65 195 6.0 10.0 0.00 0.12 0.12 86 1007.2
20260506204721 66 203 6.0 11.0 0.00 0.12 0.12 86 1007.1
20260506204617 65 210 3.0 6.0 0.00 0.12 0.12 86 1007.1
20260506204529 65 205 3.0 5.0 0.00 0.12 0.12 87 1007.1
20260506204424 65 198 5.0 7.0 0.00 0.12 0.12 86 1007.0
20260506204320 65 225 3.0 4.0 0.00 0.12 0.12 87 1007.0
20260506204216 65 257 2.0 4.0 0.00 0.12 0.12 87 1007.0
20260506204127 65 272 2.0 4.0 0.00 0.12 0.12 87 1007.2
20260506204023 65 197 2.0 4.0 0.00 0.12 0.12 87 1006.8
20260506203958 65 206 3.0 6.0 0.00 0.12 0.12 87 1007.3
20260506203850 65 196 2.0 5.0 0.00 0.12 0.12 87 1007.2
20260506203726 65 204 2.0 5.0 0.00 0.12 0.12 87 1007.1
20260506203622 65 196 3.0 6.0 0.00 0.12 0.12 87 1007.2
20260506203517 65 201 3.0 4.0 0.00 0.12 0.12 87 1007.2
20260506203449 65 199 3.0 7.0 0.00 0.12 0.12 87 1007.1
20260506203324 65 198 4.0 6.0 0.00 0.12 0.12 87 1007.2
20260506203220 65 193 5.0 8.0 0.00 0.12 0.12 87 1007.1
20260506203116 65 195 7.0 9.0 0.00 0.12 0.12 87 1007.1
20260506203027 65 202 5.0 8.0 0.00 0.12 0.12 87 1007.1
20260506202923 65 188 5.0 7.0 0.00 0.12 0.12 87 1007.2
20260506202819 65 221 2.0 8.0 0.00 0.12 0.12 87 1007.1
20260506202730 65 203 6.0 8.0 0.00 0.12 0.12 87 1007.2
20260506202626 65 208 5.0 7.0 0.00 0.12 0.12 88 1007.1
20260506202522 65 233 5.0 6.0 0.00 0.12 0.12 88 1007.0
20260506202417 65 218 4.0 6.0 0.00 0.12 0.12 88 1007.1
20260506202329 65 205 1.0 4.0 0.00 0.12 0.12 88 1007.1
20260506202225 64 204 3.0 4.0 0.00 0.12 0.12 88 1007.2
20260506202120 64 211 3.0 4.0 0.00 0.12 0.12 88 1007.1
20260506202016 64 203 4.0 6.0 0.00 0.12 0.12 88 1007.3
20260506201927 64 194 3.0 5.0 0.00 0.12 0.12 88 1007.4
20260506201823 64 248 5.0 9.0 0.00 0.12 0.12 88 1007.2
20260506201718 64 194 5.0 11.0 0.00 0.12 0.12 88 1007.4
20260506201630 64 182 2.0 4.0 0.00 0.12 0.12 88 1007.3
20260506201526 64 154 2.0 7.0 0.00 0.12 0.12 88 1007.2
20260506201422 64 190 4.0 8.0 0.00 0.12 0.12 88 1007.1
20260506201317 64 213 4.0 6.0 0.00 0.12 0.12 88 1007.3
20260506201229 64 191 4.0 6.0 0.00 0.12 0.12 88 1007.3
20260506201125 64 192 3.0 6.0 0.00 0.12 0.12 88 1007.3
20260506201020 64 190 5.0 8.0 0.00 0.12 0.12 88 1007.1
20260506200936 64 189 3.0 5.0 0.00 0.12 0.12 89 1007.3
20260506200827 64 188 4.0 5.0 0.00 0.12 0.12 88 1007.5
20260506200743 64 211 4.0 5.0 0.00 0.12 0.12 88 1007.3
20260506200638 64 215 1.0 5.0 0.00 0.12 0.12 88 1007.4
20260506200550 64 211 6.0 11.0 0.00 0.12 0.12 88 1007.3
20260506200445 64 188 6.0 9.0 0.00 0.12 0.12 89 1007.4
20260506200321 64 200 3.0 5.0 0.00 0.12 0.12 89 1007.5
20260506200217 64 221 4.0 6.0 0.00 0.12 0.12 89 1007.4
20260506200129 64 196 3.0 9.0 0.00 0.12 0.12 89 1007.4
20260506200023 64 188 5.0 9.0 0.00 0.12 0.12 90 1007.4
20260506195919 64 195 2.0 4.0 0.00 0.12 0.12 90 1007.5
20260506195830 64 183 2.0 4.0 0.00 0.12 0.12 90 1007.6
20260506195726 64 208 3.0 4.0 0.00 0.12 0.12 90 1007.3
20260506195641 64 195 4.0 5.0 0.00 0.12 0.12 90 1007.5
20260506195557 64 197 3.0 4.0 0.00 0.12 0.12 90 1007.4
20260506195429 64 192 2.0 3.0 0.00 0.12 0.12 90 1007.5
20260506195425 64 189 3.0 5.0 0.00 0.12 0.12 90 1007.6
20260506195220 64 264 2.0 4.0 0.00 0.12 0.12 90 1007.5
20260506195116 64 242 3.0 4.0 0.00 0.12 0.12 90 1007.7
20260506195027 64 241 2.0 4.0 0.00 0.12 0.12 90 1007.5
20260506194923 64 221 4.0 7.0 0.00 0.12 0.12 90 1007.7
20260506194818 64 218 3.0 6.0 0.00 0.12 0.12 90 1007.8
20260506194730 64 205 4.0 6.0 0.00 0.12 0.12 90 1007.7
20260506194626 64 166 3.0 4.0 0.00 0.12 0.12 90 1007.6
20260506194522 64 191 3.0 6.0 0.00 0.12 0.12 90 1007.7
20260506194437 64 288 2.0 3.0 0.00 0.12 0.12 90 1007.8
20260506194329 64 222 3.0 4.0 0.00 0.12 0.12 90 1007.6
20260506194245 64 200 2.0 4.0 0.00 0.12 0.12 90 1007.7
20260506194120 64 231 2.0 4.0 0.00 0.12 0.12 90 1007.7
20260506194035 64 261 2.0 4.0 0.00 0.12 0.12 90 1007.7
20260506193927 64 277 2.0 5.0 0.00 0.12 0.12 90 1007.5
20260506193823 64 246 3.0 4.0 0.00 0.12 0.12 90 1007.9
20260506193718 64 197 4.0 7.0 0.00 0.12 0.12 90 1007.6
20260506193630 64 194 3.0 5.0 0.00 0.12 0.12 90 1007.6
20260506193526 64 188 2.0 4.0 0.00 0.12 0.12 90 1007.7
20260506193421 64 202 3.0 4.0 0.00 0.12 0.12 90 1007.9
20260506193316 64 231 3.0 5.0 0.00 0.12 0.12 90 1007.8
20260506193228 64 245 2.0 4.0 0.00 0.12 0.12 90 1007.7
20260506193122 64 204 4.0 10.0 0.00 0.12 0.12 90 1007.8
20260506193036 64 211 4.0 10.0 0.00 0.12 0.12 90 1007.7
20260506192927 63 207 3.0 6.0 0.00 0.12 0.12 90 1007.9
20260506192822 64 190 5.0 8.0 0.00 0.12 0.12 90 1007.6
20260506192717 64 208 2.0 3.0 0.00 0.12 0.12 90 1007.9
20260506192629 64 195 3.0 5.0 0.00 0.12 0.12 90 1007.8
20260506192525 64 215 3.0 5.0 0.00 0.12 0.12 90 1007.9
20260506192419 64 218 3.0 5.0 0.00 0.12 0.12 90 1007.8
20260506192330 64 203 2.0 5.0 0.00 0.12 0.12 90 1008.1
20260506192225 63 212 3.0 5.0 0.00 0.12 0.12 90 1007.8
20260506192139 63 190 3.0 4.0 0.00 0.12 0.12 90 1007.8
20260506192035 63 213 3.0 6.0 0.00 0.12 0.12 90 1008.0
20260506191927 63 247 4.0 6.0 0.00 0.12 0.12 90 1008.0
20260506191822 63 226 3.0 5.0 0.00 0.12 0.12 89 1007.9